Wetterdaten: Donnerstag, 05.06.2014
Datum Zeit Temp. Aussen +5cm Feuchte Auss Luftdruck Regen Sonnenschein Regendauer UV Solar Windben
05.06.2014 00:00 12,3 C 11,1 C 97 % 1006,9 hPa 0,0 l/m 0 min 2 min 0,0 UV-I 0 W/m 12,6 km/h (3 Bft)
05.06.2014 00:02 12,3 C 11,1 C 97 % 1007,0 hPa 0,0 l/m 0 min 2 min 0,0 UV-I 0 W/m 18,8 km/h (3 Bft)
05.06.2014 00:06 12,3 C 11,1 C 97 % 1007,0 hPa 0,2 l/m 0 min 2 min 0,0 UV-I 0 W/m 16,7 km/h (3 Bft)
05.06.2014 00:08 12,3 C 11,1 C 97 % 1007,2 hPa 0,0 l/m 0 min 2 min 0,0 UV-I 0 W/m 27,2 km/h (4 Bft)
05.06.2014 00:10 12,2 C 11,1 C 97 % 1007,2 hPa 0,0 l/m 0 min 2 min 0,0 UV-I 0 W/m 31,4 km/h (5 Bft)
05.06.2014 00:12 12,1 C 11,1 C 97 % 1007,1 hPa 0,0 l/m 0 min 0 min 0,0 UV-I 0 W/m 29,3 km/h (5 Bft)
05.06.2014 00:14 12,1 C 11,1 C 97 % 1007,2 hPa 0,0 l/m 0 min 0 min 0,0 UV-I 0 W/m 25,1 km/h (4 Bft)
05.06.2014 00:16 12,0 C 11,1 C 97 % 1007,2 hPa 0,0 l/m 0 min 0 min 0,0 UV-I 0 W/m 20,9 km/h (4 Bft)
05.06.2014 00:18 12,0 C 11,1 C 97 % 1007,2 hPa 0,0 l/m 0 min 0 min 0,0 UV-I 0 W/m 18,8 km/h (3 Bft)
05.06.2014 00:20 12,0 C 11,1 C 97 % 1007,2 hPa 0,0 l/m 0 min 2 min 0,0 UV-I 0 W/m 25,1 km/h (4 Bft)
05.06.2014 00:22 11,9 C 11,1 C 97 % 1007,3 hPa 0,0 l/m 0 min 2 min 0,0 UV-I 0 W/m 14,6 km/h (3 Bft)
05.06.2014 00:24 12,0 C 11,1 C 97 % 1007,3 hPa 0,0 l/m 0 min 2 min 0,0 UV-I 0 W/m 16,7 km/h (3 Bft)
05.06.2014 00:26 12,0 C 11,1 C 97 % 1007,4 hPa 0,0 l/m 0 min 2 min 0,0 UV-I 0 W/m 20,9 km/h (4 Bft)
05.06.2014 00:28 12,0 C 11,1 C 97 % 1007,3 hPa 0,0 l/m 0 min 0 min 0,0 UV-I 0 W/m 16,7 km/h (3 Bft)
05.06.2014 00:30 12,0 C 11,1 C 97 % 1007,4 hPa 0,0 l/m 0 min 0 min 0,0 UV-I 0 W/m 16,7 km/h (3 Bft)
05.06.2014 00:32 11,9 C 11,1 C 97 % 1007,3 hPa 0,0 l/m 0 min 2 min 0,0 UV-I 0 W/m 37,7 km/h (5 Bft)
05.06.2014 00:34 11,9 C 11,1 C 97 % 1007,4 hPa 0,0 l/m 0 min 2 min 0,0 UV-I 0 W/m 27,2 km/h (4 Bft)
05.06.2014 00:36 11,9 C 10,6 C 97 % 1007,4 hPa 0,0 l/m 0 min 2 min 0,0 UV-I 0 W/m 29,3 km/h (5 Bft)
05.06.2014 00:38 11,9 C 11,1 C 97 % 1007,4 hPa 0,0 l/m 0 min 2 min 0,0 UV-I 0 W/m 20,9 km/h (4 Bft)
05.06.2014 00:40 11,8 C 11,1 C 97 % 1007,5 hPa 0,0 l/m 0 min 2 min 0,0 UV-I 0 W/m 18,8 km/h (3 Bft)
05.06.2014 00:42 11,8 C 10,6 C 97 % 1007,5 hPa 0,0 l/m 0 min 2 min 0,0 UV-I 0 W/m 23,0 km/h (4 Bft)
05.06.2014 00:44 11,8 C 10,6 C 97 % 1007,5 hPa 0,0 l/m 0 min 2 min 0,0 UV-I 0 W/m 25,1 km/h (4 Bft)
05.06.2014 00:46 11,7 C 10,6 C 97 % 1007,5 hPa 0,0 l/m 0 min 2 min 0,0 UV-I 0 W/m 33,5 km/h (5 Bft)
05.06.2014 00:48 11,7 C 10,6 C 97 % 1007,6 hPa 0,2 l/m 0 min 2 min 0,0 UV-I 0 W/m 23,0 km/h (4 Bft)
05.06.2014 00:50 11,6 C 10,6 C 97 % 1007,6 hPa 0,0 l/m 0 min 2 min 0,0 UV-I 0 W/m 31,4 km/h (5 Bft)
05.06.2014 00:52 11,6 C 10,6 C 97 % 1007,6 hPa 0,0 l/m 0 min 2 min 0,0 UV-I 0 W/m 18,8 km/h (3 Bft)
05.06.2014 00:54 11,6 C 10,6 C 97 % 1007,7 hPa 0,0 l/m 0 min 2 min 0,0 UV-I 0 W/m 25,1 km/h (4 Bft)
05.06.2014 00:56 11,5 C 10,6 C 97 % 1007,7 hPa 0,0 l/m 0 min 2 min 0,0 UV-I 0 W/m 18,8 km/h (3 Bft)
05.06.2014 00:58 11,5 C 10,6 C 97 % 1007,7 hPa 0,0 l/m 0 min 2 min 0,0 UV-I 0 W/m 20,9 km/h (4 Bft)
05.06.2014 01:00 11,4 C 10,6 C 97 % 1007,7 hPa 0,0 l/m 0 min 2 min 0,0 UV-I 0 W/m 18,8 km/h (3 Bft)
05.06.2014 01:02 11,5 C 10,6 C 97 % 1007,7 hPa 0,0 l/m 0 min 2 min 0,0 UV-I 0 W/m 29,3 km/h (5 Bft)
05.06.2014 01:06 11,4 C 10,6 C 97 % 1007,7 hPa 0,0 l/m 0 min 2 min 0,0 UV-I 0 W/m 23,0 km/h (4 Bft)
05.06.2014 01:08 11,4 C 10,6 C 97 % 1007,7 hPa 0,0 l/m 0 min 2 min 0,0 UV-I 0 W/m 23,0 km/h (4 Bft)
05.06.2014 01:10 11,4 C 10,6 C 97 % 1007,8 hPa 0,0 l/m 0 min 2 min 0,0 UV-I 0 W/m 35,6 km/h (5 Bft)
05.06.2014 01:12 11,4 C 10,6 C 97 % 1007,8 hPa 0,0 l/m 0 min 0 min 0,0 UV-I 0 W/m 23,0 km/h (4 Bft)
05.06.2014 01:14 11,4 C 10,6 C 97 % 1007,8 hPa 0,0 l/m 0 min 2 min 0,0 UV-I 0 W/m 27,2 km/h (4 Bft)
05.06.2014 01:16 11,4 C 10,6 C 97 % 1007,8 hPa 0,0 l/m 0 min 0 min 0,0 UV-I 0 W/m 31,4 km/h (5 Bft)
05.06.2014 01:18 11,4 C 10,6 C 97 % 1007,8 hPa 0,0 l/m 0 min 0 min 0,0 UV-I 0 W/m 25,1 km/h (4 Bft)
05.06.2014 01:20 11,4 C 10,6 C 97 % 1007,8 hPa 0,0 l/m 0 min 0 min 0,0 UV-I 0 W/m 29,3 km/h (5 Bft)
05.06.2014 01:22 11,3 C 10,6 C 97 % 1007,8 hPa 0,0 l/m 0 min 2 min 0,0 UV-I 0 W/m 25,1 km/h (4 Bft)
05.06.2014 01:24 11,3 C 10,6 C 97 % 1007,9 hPa 0,0 l/m 0 min 2 min 0,0 UV-I 0 W/m 25,1 km/h (4 Bft)
05.06.2014 01:26 11,3 C 10,0 C 97 % 1007,9 hPa 0,0 l/m 0 min 2 min 0,0 UV-I 0 W/m 16,7 km/h (3 Bft)
05.06.2014 01:28 11,3 C 10,0 C 97 % 1007,9 hPa 0,0 l/m 0 min 2 min 0,0 UV-I 0 W/m 33,5 km/h (5 Bft)
05.06.2014 01:30 11,3 C 10,6 C 97 % 1008,0 hPa 0,0 l/m 0 min 2 min 0,0 UV-I 0 W/m 20,9 km/h (4 Bft)
05.06.2014 01:32 11,3 C 10,6 C 97 % 1008,0 hPa 0,0 l/m 0 min 2 min 0,0 UV-I 0 W/m 25,1 km/h (4 Bft)
05.06.2014 01:34 11,3 C 10,0 C 97 % 1008,0 hPa 0,0 l/m 0 min 2 min 0,0 UV-I 0 W/m 23,0 km/h (4 Bft)
05.06.2014 01:36 11,3 C 10,0 C 97 % 1008,1 hPa 0,0 l/m 0 min 0 min 0,0 UV-I 0 W/m 25,1 km/h (4 Bft)
05.06.2014 01:38 11,3 C 10,0 C 97 % 1008,1 hPa 0,0 l/m 0 min 0 min 0,0 UV-I 0 W/m 23,0 km/h (4 Bft)
05.06.2014 01:40 11,3 C 10,0 C 97 % 1008,0 hPa 0,0 l/m 0 min 2 min 0,0 UV-I 0 W/m 25,1 km/h (4 Bft)
05.06.2014 01:42 11,3 C 10,0 C 97 % 1008,0 hPa 0,0 l/m 0 min 2 min 0,0 UV-I 0 W/m 23,0 km/h (4 Bft)
05.06.2014 01:44 11,3 C 10,0 C 97 % 1008,1 hPa 0,0 l/m 0 min 2 min 0,0 UV-I 0 W/m 20,9 km/h (4 Bft)
05.06.2014 01:46 11,3 C 10,0 C 97 % 1008,2 hPa 0,0 l/m 0 min 0 min 0,0 UV-I 0 W/m 33,5 km/h (5 Bft)
05.06.2014 01:48 11,3 C 10,0 C 97 % 1008,2 hPa 0,0 l/m 0 min 0 min 0,0 UV-I 0 W/m 18,8 km/h (3 Bft)
05.06.2014 01:50 11,3 C 10,0 C 97 % 1008,2 hPa 0,0 l/m 0 min 0 min 0,0 UV-I 0 W/m 25,1 km/h (4 Bft)
05.06.2014 01:52 11,3 C 10,0 C 97 % 1008,3 hPa 0,0 l/m 0 min 0 min 0,0 UV-I 0 W/m 33,5 km/h (5 Bft)
05.06.2014 01:54 11,3 C 10,0 C 97 % 1008,3 hPa 0,0 l/m 0 min 0 min 0,0 UV-I 0 W/m 33,5 km/h (5 Bft)
05.06.2014 01:56 11,2 C 10,0 C 97 % 1008,3 hPa 0,0 l/m 0 min 0 min 0,0 UV-I 0 W/m 23,0 km/h (4 Bft)
05.06.2014 01:58 11,2 C 10,0 C 97 % 1008,4 hPa 0,0 l/m 0 min 0 min 0,0 UV-I 0 W/m 20,9 km/h (4 Bft)
05.06.2014 02:00 11,2 C 10,0 C 97 % 1008,4 hPa 0,0 l/m 0 min 0 min 0,0 UV-I 0 W/m 37,7 km/h (5 Bft)
05.06.2014 02:02 11,2 C 10,0 C 97 % 1008,4 hPa 0,0 l/m 0 min 0 min 0,0 UV-I 0 W/m 27,2 km/h (4 Bft)
05.06.2014 02:06 11,2 C 10,0 C 97 % 1008,4 hPa 0,0 l/m 0 min 0 min 0,0 UV-I 0 W/m 35,6 km/h (5 Bft)
05.06.2014 02:08 11,1 C 10,0 C 97 % 1008,4 hPa 0,0 l/m 0 min 0 min 0,0 UV-I 0 W/m 35,6 km/h (5 Bft)
05.06.2014 02:10 11,1 C 10,0 C 96 % 1008,4 hPa 0,0 l/m 0 min 0 min 0,0 UV-I 0 W/m 20,9 km/h (4 Bft)
05.06.2014 02:12 11,1 C 10,0 C 96 % 1008,5 hPa 0,0 l/m 0 min 0 min 0,0 UV-I 0 W/m 31,4 km/h (5 Bft)
05.06.2014 02:14 11,0 C 10,0 C 96 % 1008,5 hPa 0,0 l/m 0 min 0 min 0,0 UV-I 0 W/m 27,2 km/h (4 Bft)
05.06.2014 02:16 11,0 C 10,0 C 96 % 1008,5 hPa 0,0 l/m 0 min 0 min 0,0 UV-I 0 W/m 27,2 km/h (4 Bft)
05.06.2014 02:18 10,9 C 9,4 C 96 % 1008,5 hPa 0,0 l/m 0 min 0 min 0,0 UV-I 0 W/m 27,2 km/h (4 Bft)
05.06.2014 02:20 10,9 C 9,4 C 96 % 1008,7 hPa 0,0 l/m 0 min 0 min 0,0 UV-I 0 W/m 27,2 km/h (4 Bft)
05.06.2014 02:22 10,9 C 9,4 C 96 % 1008,7 hPa 0,0 l/m 0 min 0 min 0,0 UV-I 0 W/m 23,0 km/h (4 Bft)
05.06.2014 02:24 10,9 C 9,4 C 96 % 1008,8 hPa 0,0 l/m 0 min 0 min 0,0 UV-I 0 W/m 23,0 km/h (4 Bft)
05.06.2014 02:26 10,8 C 9,4 C 96 % 1008,8 hPa 0,0 l/m 0 min 0 min 0,0 UV-I 0 W/m 31,4 km/h (5 Bft)
05.06.2014 02:28 10,8 C 9,4 C 95 % 1008,8 hPa 0,0 l/m 0 min 0 min 0,0 UV-I 0 W/m 27,2 km/h (4 Bft)
05.06.2014 02:30 10,8 C 9,4 C 95 % 1008,7 hPa 0,0 l/m 0 min 0 min 0,0 UV-I 0 W/m 23,0 km/h (4 Bft)
05.06.2014 02:32 10,8 C 9,4 C 95 % 1008,8 hPa 0,0 l/m 0 min 0 min 0,0 UV-I 0 W/m 20,9 km/h (4 Bft)
05.06.2014 02:34 10,8 C 9,4 C 95 % 1008,8 hPa 0,0 l/m 0 min 0 min 0,0 UV-I 0 W/m 16,7 km/h (3 Bft)
05.06.2014 02:36 10,7 C 9,4 C 95 % 1008,8 hPa 0,0 l/m 0 min 0 min 0,0 UV-I 0 W/m 18,8 km/h (3 Bft)
05.06.2014 02:38 10,7 C 9,4 C 95 % 1008,9 hPa 0,0 l/m 0 min 0 min 0,0 UV-I 0 W/m 23,0 km/h (4 Bft)
05.06.2014 02:40 10,6 C 9,4 C 95 % 1008,8 hPa 0,0 l/m 0 min 0 min 0,0 UV-I 0 W/m 25,1 km/h (4 Bft)
05.06.2014 02:42 10,5 C 9,4 C 95 % 1008,9 hPa 0,0 l/m 0 min 0 min 0,0 UV-I 0 W/m 25,1 km/h (4 Bft)
05.06.2014 02:44 10,4 C 8,9 C 95 % 1009,0 hPa 0,0 l/m 0 min 0 min 0,0 UV-I 0 W/m 25,1 km/h (4 Bft)
05.06.2014 02:46 10,4 C 8,9 C 95 % 1008,9 hPa 0,0 l/m 0 min 0 min 0,0 UV-I 0 W/m 27,2 km/h (4 Bft)
05.06.2014 02:48 10,3 C 8,9 C 95 % 1009,0 hPa 0,0 l/m 0 min 0 min 0,0 UV-I 0 W/m 29,3 km/h (5 Bft)
05.06.2014 02:50 10,3 C 8,9 C 95 % 1009,0 hPa 0,0 l/m 0 min 0 min 0,0 UV-I 0 W/m 20,9 km/h (4 Bft)
05.06.2014 02:52 10,3 C 8,9 C 94 % 1009,0 hPa 0,0 l/m 0 min 0 min 0,0 UV-I 0 W/m 16,7 km/h (3 Bft)
05.06.2014 02:54 10,2 C 8,9 C 94 % 1009,1 hPa 0,0 l/m 0 min 0 min 0,0 UV-I 0 W/m 23,0 km/h (4 Bft)
05.06.2014 02:56 10,2 C 8,9 C 94 % 1009,1 hPa 0,0 l/m 0 min 0 min 0,0 UV-I 0 W/m 12,6 km/h (3 Bft)
05.06.2014 02:58 10,1 C 8,9 C 94 % 1009,1 hPa 0,0 l/m 0 min 0 min 0,0 UV-I 0 W/m 16,7 km/h (3 Bft)
05.06.2014 03:00 10,0 C 8,9 C 94 % 1009,2 hPa 0,0 l/m 0 min 0 min 0,0 UV-I 0 W/m 16,7 km/h (3 Bft)
05.06.2014 03:02 10,0 C 8,9 C 94 % 1009,1 hPa 0,0 l/m 0 min 0 min 0,0 UV-I 0 W/m 23,0 km/h (4 Bft)
05.06.2014 03:06 9,9 C 8,9 C 94 % 1009,1 hPa 0,0 l/m 0 min 0 min 0,0 UV-I 0 W/m 20,9 km/h (4 Bft)
05.06.2014 03:08 9,8 C 8,9 C 94 % 1009,2 hPa 0,0 l/m 0 min 0 min 0,0 UV-I 0 W/m 25,1 km/h (4 Bft)
05.06.2014 03:10 9,8 C 8,9 C 94 % 1009,2 hPa 0,0 l/m 0 min 0 min 0,0 UV-I 0 W/m 16,7 km/h (3 Bft)
05.06.2014 03:12 9,8 C 8,9 C 94 % 1009,2 hPa 0,0 l/m 0 min 0 min 0,0 UV-I 0 W/m 20,9 km/h (4 Bft)
05.06.2014 03:14 9,7 C 8,3 C 94 % 1009,3 hPa 0,0 l/m 0 min 0 min 0,0 UV-I 0 W/m 14,6 km/h (3 Bft)
05.06.2014 03:16 9,7 C 8,3 C 94 % 1009,3 hPa 0,0 l/m 0 min 0 min 0,0 UV-I 0 W/m 18,8 km/h (3 Bft)
05.06.2014 03:18 9,7 C 8,3 C 94 % 1009,3 hPa 0,0 l/m 0 min 0 min 0,0 UV-I 0 W/m 16,7 km/h (3 Bft)
05.06.2014 03:20 9,6 C 8,3 C 94 % 1009,3 hPa 0,0 l/m 0 min 0 min 0,0 UV-I 0 W/m 16,7 km/h (3 Bft)
05.06.2014 03:22 9,6 C 8,3 C 95 % 1009,3 hPa 0,0 l/m 0 min 0 min 0,0 UV-I 0 W/m 12,6 km/h (3 Bft)
05.06.2014 03:24 9,6 C 8,3 C 94 % 1009,4 hPa 0,0 l/m 0 min 0 min 0,0 UV-I 0 W/m 14,6 km/h (3 Bft)
05.06.2014 03:26 9,5 C 8,3 C 94 % 1009,4 hPa 0,0 l/m 0 min 0 min 0,0 UV-I 0 W/m 14,6 km/h (3 Bft)
05.06.2014 03:28 9,4 C 8,3 C 94 % 1009,5 hPa 0,0 l/m 0 min 0 min 0,0 UV-I 0 W/m 18,8 km/h (3 Bft)
05.06.2014 03:30 9,4 C 8,3 C 94 % 1009,4 hPa 0,0 l/m 0 min 0 min 0,0 UV-I 0 W/m 12,6 km/h (3 Bft)
05.06.2014 03:32 9,4 C 8,3 C 94 % 1009,4 hPa 0,0 l/m 0 min 0 min 0,0 UV-I 0 W/m 6,3 km/h (2 Bft)
05.06.2014 03:34 9,3 C 8,3 C 95 % 1009,4 hPa 0,0 l/m 0 min 0 min 0,0 UV-I 0 W/m 8,4 km/h (2 Bft)
05.06.2014 03:36 9,3 C 8,3 C 95 % 1009,4 hPa 0,0 l/m 0 min 0 min 0,0 UV-I 0 W/m 8,4 km/h (2 Bft)
05.06.2014 03:38 9,3 C 8,3 C 95 % 1009,5 hPa 0,0 l/m 0 min 0 min 0,0 UV-I 0 W/m 10,5 km/h (2 Bft)
05.06.2014 03:40 9,2 C 8,3 C 95 % 1009,5 hPa 0,0 l/m 0 min 0 min 0,0 UV-I 0 W/m 8,4 km/h (2 Bft)
05.06.2014 03:42 9,2 C 8,3 C 95 % 1009,5 hPa 0,0 l/m 0 min 0 min 0,0 UV-I 0 W/m 4,2 km/h (1 Bft)
05.06.2014 03:44 9,2 C 8,3 C 95 % 1009,5 hPa 0,0 l/m 0 min 0 min 0,0 UV-I 0 W/m 14,6 km/h (3 Bft)
05.06.2014 03:46 9,2 C 8,3 C 95 % 1009,6 hPa 0,0 l/m 0 min 0 min 0,0 UV-I 0 W/m 8,4 km/h (2 Bft)
05.06.2014 03:48 9,1 C 8,3 C 95 % 1009,7 hPa 0,0 l/m 0 min 0 min 0,0 UV-I 0 W/m 8,4 km/h (2 Bft)
05.06.2014 03:50 9,1 C 8,3 C 95 % 1009,7 hPa 0,0 l/m 0 min 0 min 0,0 UV-I 0 W/m 10,5 km/h (2 Bft)
05.06.2014 03:52 9,1 C 8,3 C 95 % 1009,7 hPa 0,0 l/m 0 min 0 min 0,0 UV-I 0 W/m 14,6 km/h (3 Bft)
05.06.2014 03:54 9,1 C 7,8 C 95 % 1009,7 hPa 0,0 l/m 0 min 0 min 0,0 UV-I 0 W/m 10,5 km/h (2 Bft)
05.06.2014 03:56 9,1 C 7,8 C 95 % 1009,8 hPa 0,0 l/m 0 min 0 min 0,0 UV-I 0 W/m 12,6 km/h (3 Bft)
05.06.2014 03:58 9,0 C 7,8 C 95 % 1009,8 hPa 0,0 l/m 0 min 0 min 0,0 UV-I 0 W/m 10,5 km/h (2 Bft)
05.06.2014 04:00 9,0 C 7,8 C 95 % 1009,8 hPa 0,0 l/m 0 min 0 min 0,0 UV-I 0 W/m 16,7 km/h (3 Bft)
05.06.2014 04:02 8,9 C 7,8 C 95 % 1009,8 hPa 0,0 l/m 0 min 0 min 0,0 UV-I 0 W/m 6,3 km/h (2 Bft)
05.06.2014 04:06 8,9 C 7,8 C 95 % 1009,7 hPa 0,0 l/m 0 min 0 min 0,0 UV-I 0 W/m 14,6 km/h (3 Bft)
05.06.2014 04:08 8,8 C 7,8 C 95 % 1009,8 hPa 0,0 l/m 0 min 0 min 0,0 UV-I 0 W/m 14,6 km/h (3 Bft)
05.06.2014 04:10 8,8 C 7,8 C 95 % 1009,7 hPa 0,0 l/m 0 min 0 min 0,0 UV-I 0 W/m 12,6 km/h (3 Bft)
05.06.2014 04:12 8,8 C 7,8 C 95 % 1009,8 hPa 0,0 l/m 0 min 0 min 0,0 UV-I 0 W/m 8,4 km/h (2 Bft)
05.06.2014 04:14 8,8 C 7,8 C 95 % 1009,9 hPa 0,0 l/m 0 min 0 min 0,0 UV-I 0 W/m 20,9 km/h (4 Bft)
05.06.2014 04:16 8,7 C 7,8 C 95 % 1009,8 hPa 0,0 l/m 0 min 0 min 0,0 UV-I 0 W/m 20,9 km/h (4 Bft)
05.06.2014 04:18 8,7 C 7,8 C 95 % 1009,8 hPa 0,0 l/m 0 min 0 min 0,0 UV-I 0 W/m 18,8 km/h (3 Bft)
05.06.2014 04:20 8,7 C 7,8 C 95 % 1009,8 hPa 0,0 l/m 0 min 0 min 0,0 UV-I 0 W/m 16,7 km/h (3 Bft)
05.06.2014 04:22 8,7 C 7,8 C 95 % 1009,8 hPa 0,0 l/m 0 min 0 min 0,0 UV-I 0 W/m 16,7 km/h (3 Bft)
05.06.2014 04:24 8,7 C 7,8 C 95 % 1009,9 hPa 0,0 l/m 0 min 0 min 0,0 UV-I 0 W/m 12,6 km/h (3 Bft)
05.06.2014 04:26 8,7 C 7,8 C 95 % 1009,9 hPa 0,0 l/m 0 min 0 min 0,0 UV-I 0 W/m 12,6 km/h (3 Bft)
05.06.2014 04:28 8,7 C 7,8 C 95 % 1009,9 hPa 0,0 l/m 0 min 0 min 0,0 UV-I 0 W/m 16,7 km/h (3 Bft)
05.06.2014 04:30 8,6 C 7,8 C 95 % 1009,9 hPa 0,0 l/m 0 min 0 min 0,0 UV-I 0 W/m 12,6 km/h (3 Bft)
05.06.2014 04:32 8,6 C 7,8 C 95 % 1009,8 hPa 0,0 l/m 0 min 0 min 0,0 UV-I 0 W/m 14,6 km/h (3 Bft)
05.06.2014 04:34 8,6 C 7,2 C 95 % 1009,9 hPa 0,0 l/m 0 min 0 min 0,0 UV-I 0 W/m 10,5 km/h (2 Bft)
05.06.2014 04:36 8,6 C 7,2 C 95 % 1009,9 hPa 0,0 l/m 0 min 0 min 0,0 UV-I 0 W/m 10,5 km/h (2 Bft)
05.06.2014 04:38 8,6 C 7,2 C 95 % 1009,9 hPa 0,0 l/m 0 min 0 min 0,0 UV-I 0 W/m 12,6 km/h (3 Bft)
05.06.2014 04:40 8,6 C 7,2 C 95 % 1009,9 hPa 0,0 l/m 0 min 0 min 0,0 UV-I 0 W/m 14,6 km/h (3 Bft)
05.06.2014 04:42 8,6 C 7,2 C 95 % 1009,9 hPa 0,0 l/m 0 min 0 min 0,0 UV-I 0 W/m 14,6 km/h (3 Bft)
05.06.2014 04:44 8,5 C 7,2 C 95 % 1009,9 hPa 0,0 l/m 0 min 0 min 0,0 UV-I 0 W/m 12,6 km/h (3 Bft)
05.06.2014 04:46 8,5 C 7,2 C 95 % 1009,9 hPa 0,0 l/m 0 min 0 min 0,0 UV-I 0 W/m 10,5 km/h (2 Bft)
05.06.2014 04:48 8,5 C 7,2 C 95 % 1009,9 hPa 0,0 l/m 0 min 0 min 0,0 UV-I 0 W/m 12,6 km/h (3 Bft)
05.06.2014 04:50 8,4 C 7,2 C 94 % 1009,9 hPa 0,0 l/m 0 min 0 min 0,0 UV-I 0 W/m 4,2 km/h (1 Bft)
05.06.2014 04:52 8,4 C 7,2 C 94 % 1009,9 hPa 0,0 l/m 0 min 0 min 0,0 UV-I 0 W/m 12,6 km/h (3 Bft)
05.06.2014 04:54 8,4 C 7,2 C 94 % 1010,0 hPa 0,0 l/m 0 min 0 min 0,0 UV-I 0 W/m 10,5 km/h (2 Bft)
05.06.2014 04:56 8,4 C 7,2 C 94 % 1010,0 hPa 0,0 l/m 0 min 0 min 0,0 UV-I 0 W/m 10,5 km/h (2 Bft)
05.06.2014 04:58 8,4 C 7,2 C 94 % 1010,0 hPa 0,0 l/m 0 min 0 min 0,0 UV-I 0 W/m 14,6 km/h (3 Bft)
05.06.2014 05:00 8,4 C 7,2 C 94 % 1009,9 hPa 0,0 l/m 0 min 0 min 0,0 UV-I 0 W/m 12,6 km/h (3 Bft)
05.06.2014 05:02 8,4 C 7,2 C 94 % 1009,9 hPa 0,0 l/m 0 min 0 min 0,0 UV-I 0 W/m 4,2 km/h (1 Bft)
05.06.2014 05:06 8,4 C 7,2 C 95 % 1009,9 hPa 0,0 l/m 0 min 0 min 0,0 UV-I 0 W/m 10,5 km/h (2 Bft)
05.06.2014 05:08 8,4 C 7,2 C 95 % 1009,8 hPa 0,0 l/m 0 min 0 min 0,0 UV-I 0 W/m 8,4 km/h (2 Bft)
05.06.2014 05:10 8,4 C 7,2 C 95 % 1009,8 hPa 0,0 l/m 0 min 0 min 0,0 UV-I 0 W/m 10,5 km/h (2 Bft)
05.06.2014 05:12 8,4 C 7,2 C 95 % 1009,9 hPa 0,0 l/m 0 min 0 min 0,0 UV-I 0 W/m 18,8 km/h (3 Bft)
05.06.2014 05:14 8,3 C 7,2 C 95 % 1009,8 hPa 0,0 l/m 0 min 0 min 0,0 UV-I 0 W/m 12,6 km/h (3 Bft)
05.06.2014 05:16 8,3 C 7,2 C 95 % 1009,8 hPa 0,0 l/m 0 min 0 min 0,0 UV-I 0 W/m 10,5 km/h (2 Bft)
05.06.2014 05:18 8,3 C 7,2 C 95 % 1009,8 hPa 0,0 l/m 0 min 0 min 0,0 UV-I 0 W/m 10,5 km/h (2 Bft)
05.06.2014 05:20 8,3 C 7,2 C 95 % 1009,8 hPa 0,0 l/m 0 min 0 min 0,0 UV-I 0 W/m 12,6 km/h (3 Bft)
05.06.2014 05:22 8,2 C 7,2 C 95 % 1009,8 hPa 0,0 l/m 0 min 0 min 0,0 UV-I 5 W/m 10,5 km/h (2 Bft)
05.06.2014 05:24 8,2 C 7,2 C 95 % 1009,8 hPa 0,0 l/m 0 min 0 min 0,0 UV-I 5 W/m 12,6 km/h (3 Bft)
05.06.2014 05:26 8,2 C 7,2 C 99 % 1009,8 hPa 0,0 l/m 0 min 0 min 0,0 UV-I 5 W/m 14,6 km/h (3 Bft)
05.06.2014 05:28 8,2 C 7,2 C 99 % 1009,8 hPa 0,0 l/m 0 min 0 min 0,0 UV-I 7 W/m 8,4 km/h (2 Bft)
05.06.2014 05:30 8,1 C 6,7 C 95 % 1009,8 hPa 0,0 l/m 0 min 0 min 0,0 UV-I 7 W/m 14,6 km/h (3 Bft)
05.06.2014 05:32 8,1 C 6,7 C 95 % 1009,7 hPa 0,0 l/m 0 min 0 min 0,0 UV-I 7 W/m 14,6 km/h (3 Bft)
05.06.2014 05:34 8,1 C 6,7 C 95 % 1009,8 hPa 0,0 l/m 0 min 0 min 0,0 UV-I 9 W/m 12,6 km/h (3 Bft)
05.06.2014 05:36 8,1 C 7,2 C 95 % 1009,7 hPa 0,0 l/m 0 min 0 min 0,0 UV-I 9 W/m 14,6 km/h (3 Bft)
05.06.2014 05:38 8,1 C 6,7 C 95 % 1009,7 hPa 0,0 l/m 0 min 0 min 0,0 UV-I 11 W/m 10,5 km/h (2 Bft)
05.06.2014 05:40 8,1 C 6,7 C 95 % 1009,7 hPa 0,0 l/m 0 min 0 min 0,0 UV-I 12 W/m 10,5 km/h (2 Bft)
05.06.2014 05:42 8,0 C 6,7 C 95 % 1009,7 hPa 0,0 l/m 0 min 0 min 0,0 UV-I 12 W/m 8,4 km/h (2 Bft)
05.06.2014 05:44 8,0 C 6,7 C 95 % 1009,7 hPa 0,0 l/m 0 min 0 min 0,0 UV-I 14 W/m 8,4 km/h (2 Bft)
05.06.2014 05:46 8,0 C 6,7 C 95 % 1009,7 hPa 0,0 l/m 0 min 0 min 0,0 UV-I 14 W/m 8,4 km/h (2 Bft)
05.06.2014 05:48 8,0 C 6,7 C 95 % 1009,8 hPa 0,0 l/m 0 min 0 min 0,0 UV-I 16 W/m 10,5 km/h (2 Bft)
05.06.2014 05:50 8,0 C 6,7 C 95 % 1009,8 hPa 0,0 l/m 0 min 0 min 0,0 UV-I 18 W/m 8,4 km/h (2 Bft)
05.06.2014 05:52 8,0 C 6,7 C 96 % 1009,7 hPa 0,0 l/m 0 min 0 min 0,0 UV-I 18 W/m 10,5 km/h (2 Bft)
05.06.2014 05:54 8,0 C 6,7 C 96 % 1009,7 hPa 0,0 l/m 0 min 0 min 0,0 UV-I 19 W/m 14,6 km/h (3 Bft)
05.06.2014 05:56 8,0 C 6,7 C 96 % 1009,7 hPa 0,0 l/m 0 min 0 min 0,0 UV-I 23 W/m 14,6 km/h (3 Bft)
05.06.2014 05:58 8,0 C 7,2 C 96 % 1009,7 hPa 0,0 l/m 0 min 0 min 0,0 UV-I 23 W/m 14,6 km/h (3 Bft)
05.06.2014 06:00 8,1 C 7,2 C 96 % 1009,7 hPa 0,0 l/m 0 min 0 min 0,0 UV-I 25 W/m 12,6 km/h (3 Bft)
05.06.2014 06:02 8,1 C 7,2 C 96 % 1009,7 hPa 0,0 l/m 0 min 0 min 0,0 UV-I 26 W/m 14,6 km/h (3 Bft)
05.06.2014 06:06 8,1 C 7,2 C 96 % 1009,8 hPa 0,0 l/m 0 min 0 min 0,0 UV-I 28 W/m 18,8 km/h (3 Bft)
05.06.2014 06:08 8,1 C 7,2 C 96 % 1009,8 hPa 0,0 l/m 0 min 0 min 0,0 UV-I 28 W/m 14,6 km/h (3 Bft)
05.06.2014 06:10 8,1 C 7,2 C 96 % 1009,8 hPa 0,0 l/m 0 min 0 min 0,0 UV-I 30 W/m 14,6 km/h (3 Bft)
05.06.2014 06:12 8,1 C 7,2 C 96 % 1009,8 hPa 0,0 l/m 0 min 0 min 0,0 UV-I 21 W/m 12,6 km/h (3 Bft)
05.06.2014 06:14 8,1 C 7,2 C 96 % 1009,8 hPa 0,0 l/m 0 min 0 min 0,0 UV-I 23 W/m 8,4 km/h (2 Bft)
05.06.2014 06:16 8,1 C 7,2 C 96 % 1009,8 hPa 0,0 l/m 0 min 0 min 0,0 UV-I 37 W/m 12,6 km/h (3 Bft)
05.06.2014 06:18 8,1 C 7,2 C 96 % 1009,8 hPa 0,0 l/m 0 min 0 min 0,0 UV-I 39 W/m 8,4 km/h (2 Bft)
05.06.2014 06:20 8,0 C 7,2 C 96 % 1009,8 hPa 0,0 l/m 0 min 0 min 0,0 UV-I 44 W/m 8,4 km/h (2 Bft)
05.06.2014 06:22 8,0 C 7,2 C 96 % 1009,7 hPa 0,0 l/m 0 min 0 min 0,0 UV-I 46 W/m 12,6 km/h (3 Bft)
05.06.2014 06:24 8,0 C 7,2 C 96 % 1009,7 hPa 0,0 l/m 0 min 0 min 0,0 UV-I 49 W/m 12,6 km/h (3 Bft)
05.06.2014 06:26 8,0 C 7,2 C 96 % 1009,7 hPa 0,0 l/m 0 min 0 min 0,0 UV-I 54 W/m 14,6 km/h (3 Bft)
05.06.2014 06:28 8,1 C 7,2 C 96 % 1009,7 hPa 0,0 l/m 0 min 0 min 0,0 UV-I 56 W/m 14,6 km/h (3 Bft)
05.06.2014 06:30 8,1 C 7,2 C 96 % 1009,7 hPa 0,0 l/m 0 min 0 min 0,0 UV-I 60 W/m 14,6 km/h (3 Bft)
05.06.2014 06:32 8,1 C 7,2 C 96 % 1009,7 hPa 0,0 l/m 0 min 0 min 0,0 UV-I 65 W/m 14,6 km/h (3 Bft)
05.06.2014 06:34 8,2 C 7,2 C 96 % 1009,7 hPa 0,0 l/m 0 min 0 min 0,0 UV-I 67 W/m 16,7 km/h (3 Bft)
05.06.2014 06:36 8,2 C 7,2 C 96 % 1009,7 hPa 0,0 l/m 0 min 0 min 0,0 UV-I 70 W/m 16,7 km/h (3 Bft)
05.06.2014 06:38 8,3 C 7,2 C 95 % 1009,6 hPa 0,0 l/m 0 min 0 min 0,0 UV-I 76 W/m 16,7 km/h (3 Bft)
05.06.2014 06:40 8,3 C 7,2 C 95 % 1009,8 hPa 0,0 l/m 0 min 0 min 0,0 UV-I 79 W/m 14,6 km/h (3 Bft)
05.06.2014 06:42 8,4 C 7,2 C 96 % 1009,8 hPa 0,0 l/m 0 min 0 min 0,0 UV-I 83 W/m 16,7 km/h (3 Bft)
05.06.2014 06:44 8,4 C 7,2 C 96 % 1009,7 hPa 0,0 l/m 0 min 0 min 0,0 UV-I 88 W/m 12,6 km/h (3 Bft)
05.06.2014 06:46 8,4 C 7,2 C 96 % 1009,7 hPa 0,0 l/m 0 min 0 min 0,0 UV-I 90 W/m 18,8 km/h (3 Bft)
05.06.2014 06:48 8,6 C 7,2 C 95 % 1009,7 hPa 0,0 l/m 0 min 0 min 0,0 UV-I 95 W/m 14,6 km/h (3 Bft)
05.06.2014 06:50 8,6 C 7,2 C 95 % 1009,6 hPa 0,0 l/m 0 min 0 min 0,0 UV-I 100 W/m 12,6 km/h (3 Bft)
05.06.2014 06:52 8,6 C 7,8 C 95 % 1009,6 hPa 0,0 l/m 0 min 0 min 0,0 UV-I 104 W/m 12,6 km/h (3 Bft)
05.06.2014 06:54 8,7 C 7,8 C 95 % 1009,6 hPa 0,0 l/m 0 min 0 min 0,0 UV-I 107 W/m 23,0 km/h (4 Bft)
05.06.2014 06:56 8,7 C 7,8 C 95 % 1009,6 hPa 0,0 l/m 2 min 0 min 0,0 UV-I 114 W/m 18,8 km/h (3 Bft)
05.06.2014 06:58 8,7 C 7,8 C 95 % 1009,7 hPa 0,0 l/m 2 min 0 min 0,0 UV-I 118 W/m 14,6 km/h (3 Bft)
05.06.2014 07:00 8,8 C 7,8 C 95 % 1009,7 hPa 0,0 l/m 2 min 0 min 0,0 UV-I 125 W/m 10,5 km/h (2 Bft)
05.06.2014 07:02 8,8 C 7,8 C 94 % 1009,6 hPa 0,0 l/m 2 min 0 min 0,0 UV-I 128 W/m 14,6 km/h (3 Bft)
05.06.2014 07:06 8,9 C 7,8 C 94 % 1009,6 hPa 0,0 l/m 2 min 0 min 0,0 UV-I 141 W/m 18,8 km/h (3 Bft)
05.06.2014 07:08 8,9 C 7,8 C 94 % 1009,6 hPa 0,0 l/m 2 min 0 min 0,0 UV-I 146 W/m 12,6 km/h (3 Bft)
05.06.2014 07:10 9,0 C 7,8 C 94 % 1009,6 hPa 0,0 l/m 2 min 0 min 0,0 UV-I 148 W/m 16,7 km/h (3 Bft)
05.06.2014 07:12 9,1 C 7,8 C 94 % 1009,6 hPa 0,0 l/m 2 min 0 min 0,0 UV-I 158 W/m 14,6 km/h (3 Bft)
05.06.2014 07:14 9,1 C 7,8 C 94 % 1009,6 hPa 0,0 l/m 2 min 0 min 0,0 UV-I 167 W/m 14,6 km/h (3 Bft)
05.06.2014 07:16 9,2 C 7,8 C 94 % 1009,7 hPa 0,0 l/m 2 min 0 min 0,0 UV-I 174 W/m 16,7 km/h (3 Bft)
05.06.2014 07:18 9,3 C 7,8 C 94 % 1009,6 hPa 0,0 l/m 2 min 0 min 0,0 UV-I 179 W/m 14,6 km/h (3 Bft)
05.06.2014 07:20 9,4 C 8,3 C 93 % 1009,6 hPa 0,0 l/m 2 min 0 min 0,0 UV-I 185 W/m 29,3 km/h (5 Bft)
05.06.2014 07:22 9,4 C 8,3 C 93 % 1009,5 hPa 0,0 l/m 2 min 0 min 0,0 UV-I 190 W/m 20,9 km/h (4 Bft)
05.06.2014 07:24 9,5 C 8,3 C 93 % 1009,7 hPa 0,0 l/m 2 min 0 min 0,0 UV-I 206 W/m 20,9 km/h (4 Bft)
05.06.2014 07:26 9,6 C 8,3 C 93 % 1009,7 hPa 0,0 l/m 2 min 0 min 0,0 UV-I 216 W/m 20,9 km/h (4 Bft)
05.06.2014 07:28 9,7 C 8,3 C 92 % 1009,8 hPa 0,0 l/m 2 min 0 min 0,0 UV-I 227 W/m 18,8 km/h (3 Bft)
05.06.2014 07:30 9,7 C 8,3 C 92 % 1009,6 hPa 0,0 l/m 2 min 0 min 0,0 UV-I 223 W/m 25,1 km/h (4 Bft)
05.06.2014 07:32 9,8 C 8,3 C 92 % 1009,5 hPa 0,0 l/m 2 min 0 min 0,0 UV-I 237 W/m 23,0 km/h (4 Bft)
05.06.2014 07:34 9,9 C 8,3 C 91 % 1009,4 hPa 0,0 l/m 2 min 0 min 0,0 UV-I 216 W/m 23,0 km/h (4 Bft)
05.06.2014 07:36 9,9 C 8,3 C 91 % 1009,5 hPa 0,0 l/m 2 min 0 min 0,0 UV-I 253 W/m 23,0 km/h (4 Bft)
05.06.2014 07:38 10,0 C 8,9 C 91 % 1009,6 hPa 0,0 l/m 2 min 0 min 0,0 UV-I 283 W/m 16,7 km/h (3 Bft)
05.06.2014 07:40 10,2 C 8,9 C 90 % 1009,6 hPa 0,0 l/m 2 min 0 min 0,0 UV-I 294 W/m 20,9 km/h (4 Bft)
05.06.2014 07:42 10,3 C 8,9 C 90 % 1009,6 hPa 0,0 l/m 0 min 0 min 0,0 UV-I 116 W/m 23,0 km/h (4 Bft)
05.06.2014 07:44 10,4 C 8,9 C 89 % 1009,6 hPa 0,0 l/m 0 min 0 min 0,0 UV-I 163 W/m 23,0 km/h (4 Bft)
05.06.2014 07:46 10,4 C 8,9 C 88 % 1009,7 hPa 0,0 l/m 2 min 0 min 0,0 UV-I 301 W/m 14,6 km/h (3 Bft)
05.06.2014 07:48 10,5 C 8,9 C 88 % 1009,9 hPa 0,0 l/m 0 min 0 min 0,0 UV-I 70 W/m 25,1 km/h (4 Bft)
05.06.2014 07:50 10,6 C 8,9 C 87 % 1009,7 hPa 0,0 l/m 0 min 0 min 0,0 UV-I 62 W/m 16,7 km/h (3 Bft)
05.06.2014 07:52 10,6 C 8,9 C 87 % 1009,7 hPa 0,0 l/m 0 min 0 min 0,0 UV-I 74 W/m 23,0 km/h (4 Bft)
05.06.2014 07:54 10,5 C 8,9 C 86 % 1009,7 hPa 0,0 l/m 0 min 0 min 0,0 UV-I 109 W/m 20,9 km/h (4 Bft)
05.06.2014 07:56 10,6 C 8,9 C 86 % 1009,6 hPa 0,0 l/m 2 min 0 min 0,0 UV-I 401 W/m 23,0 km/h (4 Bft)
05.06.2014 07:58 10,7 C 9,4 C 87 % 1009,7 hPa 0,0 l/m 0 min 0 min 0,0 UV-I 188 W/m 23,0 km/h (4 Bft)
05.06.2014 08:00 10,8 C 9,4 C 87 % 1009,7 hPa 0,0 l/m 0 min 0 min 0,0 UV-I 153 W/m 18,8 km/h (3 Bft)
05.06.2014 08:02 10,9 C 10,0 C 86 % 1009,8 hPa 0,0 l/m 0 min 0 min 0,0 UV-I 132 W/m 20,9 km/h (4 Bft)
05.06.2014 08:06 11,0 C 9,4 C 86 % 1009,8 hPa 0,0 l/m 0 min 2 min 0,0 UV-I 102 W/m 23,0 km/h (4 Bft)
05.06.2014 08:08 11,0 C 9,4 C 85 % 1009,6 hPa 0,0 l/m 0 min 2 min 0,0 UV-I 86 W/m 14,6 km/h (3 Bft)
05.06.2014 08:10 10,9 C 9,4 C 85 % 1009,6 hPa 0,0 l/m 0 min 2 min 0,0 UV-I 83 W/m 20,9 km/h (4 Bft)
05.06.2014 08:12 10,9 C 9,4 C 85 % 1009,7 hPa 0,0 l/m 0 min 0 min 0,0 UV-I 69 W/m 18,8 km/h (3 Bft)
05.06.2014 08:14 10,9 C 9,4 C 86 % 1009,7 hPa 0,0 l/m 0 min 0 min 0,0 UV-I 63 W/m 23,0 km/h (4 Bft)
05.06.2014 08:16 10,9 C 9,4 C 86 % 1009,8 hPa 0,0 l/m 0 min 0 min 0,0 UV-I 58 W/m 25,1 km/h (4 Bft)
05.06.2014 08:18 10,8 C 9,4 C 86 % 1009,8 hPa 0,0 l/m 0 min 0 min 0,0 UV-I 54 W/m 23,0 km/h (4 Bft)
05.06.2014 08:20 10,8 C 9,4 C 85 % 1009,9 hPa 0,0 l/m 0 min 0 min 0,0 UV-I 47 W/m 23,0 km/h (4 Bft)
05.06.2014 08:22 10,8 C 9,4 C 85 % 1009,9 hPa 0,0 l/m 0 min 2 min 0,0 UV-I 37 W/m 16,7 km/h (3 Bft)
05.06.2014 08:24 10,8 C 8,9 C 85 % 1009,9 hPa 0,0 l/m 0 min 2 min 0,0 UV-I 32 W/m 14,6 km/h (3 Bft)
05.06.2014 08:26 10,8 C 8,9 C 86 % 1009,9 hPa 0,0 l/m 0 min 2 min 0,0 UV-I 33 W/m 12,6 km/h (3 Bft)
05.06.2014 08:28 10,8 C 8,9 C 86 % 1010,0 hPa 0,0 l/m 0 min 0 min 0,0 UV-I 30 W/m 16,7 km/h (3 Bft)
05.06.2014 08:30 10,7 C 8,9 C 86 % 1010,0 hPa 0,0 l/m 0 min 0 min 0,0 UV-I 28 W/m 12,6 km/h (3 Bft)
05.06.2014 08:32 10,7 C 8,9 C 86 % 1009,9 hPa 0,0 l/m 0 min 0 min 0,0 UV-I 32 W/m 20,9 km/h (4 Bft)
05.06.2014 08:34 10,6 C 8,9 C 86 % 1010,0 hPa 0,0 l/m 0 min 0 min 0,0 UV-I 39 W/m 27,2 km/h (4 Bft)
05.06.2014 08:36 10,6 C 8,9 C 86 % 1010,0 hPa 0,0 l/m 0 min 0 min 0,0 UV-I 44 W/m 18,8 km/h (3 Bft)
05.06.2014 08:38 10,6 C 8,9 C 87 % 1009,9 hPa 0,0 l/m 0 min 0 min 0,0 UV-I 53 W/m 35,6 km/h (5 Bft)
05.06.2014 08:40 10,6 C 8,9 C 87 % 1010,0 hPa 0,0 l/m 0 min 0 min 0,0 UV-I 60 W/m 25,1 km/h (4 Bft)
05.06.2014 08:42 10,6 C 8,9 C 86 % 1010,0 hPa 0,0 l/m 0 min 0 min 0,0 UV-I 63 W/m 23,0 km/h (4 Bft)
05.06.2014 08:44 10,6 C 9,4 C 86 % 1010,0 hPa 0,0 l/m 0 min 0 min 0,0 UV-I 72 W/m 23,0 km/h (4 Bft)
05.06.2014 08:46 10,6 C 9,4 C 86 % 1010,0 hPa 0,0 l/m 0 min 0 min 0,0 UV-I 81 W/m 14,6 km/h (3 Bft)
05.06.2014 08:48 10,7 C 9,4 C 86 % 1010,0 hPa 0,0 l/m 0 min 0 min 0,0 UV-I 83 W/m 16,7 km/h (3 Bft)
05.06.2014 08:50 10,7 C 9,4 C 86 % 1010,0 hPa 0,0 l/m 0 min 0 min 0,0 UV-I 79 W/m 12,6 km/h (3 Bft)
05.06.2014 08:52 10,8 C 9,4 C 86 % 1010,1 hPa 0,0 l/m 0 min 0 min 0,0 UV-I 91 W/m 25,1 km/h (4 Bft)
05.06.2014 08:54 10,8 C 9,4 C 86 % 1010,1 hPa 0,0 l/m 0 min 0 min 0,0 UV-I 104 W/m 27,2 km/h (4 Bft)
05.06.2014 08:56 10,8 C 9,4 C 86 % 1010,1 hPa 0,0 l/m 0 min 0 min 0,0 UV-I 116 W/m 27,2 km/h (4 Bft)
05.06.2014 08:58 10,9 C 9,4 C 86 % 1010,1 hPa 0,0 l/m 0 min 0 min 0,0 UV-I 128 W/m 23,0 km/h (4 Bft)
05.06.2014 09:00 10,9 C 9,4 C 86 % 1010,2 hPa 0,0 l/m 0 min 0 min 0,0 UV-I 142 W/m 33,5 km/h (5 Bft)
05.06.2014 09:02 11,0 C 10,0 C 85 % 1010,2 hPa 0,0 l/m 0 min 0 min 0,0 UV-I 162 W/m 27,2 km/h (4 Bft)
05.06.2014 09:06 11,2 C 10,0 C 85 % 1010,1 hPa 0,0 l/m 0 min 0 min 0,0 UV-I 207 W/m 25,1 km/h (4 Bft)
05.06.2014 09:08 11,3 C 10,0 C 85 % 1010,1 hPa 0,0 l/m 0 min 0 min 0,0 UV-I 230 W/m 27,2 km/h (4 Bft)
05.06.2014 09:10 11,4 C 10,6 C 85 % 1010,2 hPa 0,0 l/m 0 min 0 min 0,0 UV-I 244 W/m 12,6 km/h (3 Bft)
05.06.2014 09:12 11,5 C 10,6 C 84 % 1010,2 hPa 0,0 l/m 0 min 0 min 0,0 UV-I 258 W/m 23,0 km/h (4 Bft)
05.06.2014 09:14 11,6 C 10,6 C 84 % 1010,2 hPa 0,0 l/m 0 min 0 min 0,0 UV-I 237 W/m 31,4 km/h (5 Bft)
05.06.2014 09:16 11,6 C 10,6 C 83 % 1010,2 hPa 0,0 l/m 0 min 0 min 0,0 UV-I 237 W/m 46,0 km/h (6 Bft)
05.06.2014 09:18 11,8 C 10,6 C 83 % 1010,2 hPa 0,0 l/m 2 min 0 min 0,5 UV-I 592 W/m 33,5 km/h (5 Bft)
05.06.2014 09:20 12,0 C 10,6 C 83 % 1010,1 hPa 0,0 l/m 2 min 0 min 0,5 UV-I 580 W/m 18,8 km/h (3 Bft)
05.06.2014 09:22 12,2 C 11,1 C 83 % 1010,2 hPa 0,0 l/m 2 min 0 min 0,0 UV-I 580 W/m 25,1 km/h (4 Bft)
05.06.2014 09:24 12,3 C 11,1 C 81 % 1010,1 hPa 0,0 l/m 2 min 0 min 0,0 UV-I 573 W/m 35,6 km/h (5 Bft)
05.06.2014 09:26 12,4 C 11,1 C 81 % 1010,1 hPa 0,0 l/m 2 min 0 min 0,6 UV-I 664 W/m 43,9 km/h (6 Bft)
05.06.2014 09:28 12,6 C 11,7 C 80 % 1010,2 hPa 0,0 l/m 2 min 0 min 0,6 UV-I 664 W/m 31,4 km/h (5 Bft)
05.06.2014 09:30 12,6 C 11,7 C 80 % 1010,3 hPa 0,0 l/m 0 min 0 min 0,0 UV-I 279 W/m 35,6 km/h (5 Bft)
05.06.2014 09:32 12,5 C 11,7 C 79 % 1010,1 hPa 0,0 l/m 0 min 0 min 0,0 UV-I 211 W/m 39,7 km/h (6 Bft)
05.06.2014 09:34 12,4 C 11,7 C 79 % 1010,2 hPa 0,0 l/m 0 min 0 min 0,0 UV-I 237 W/m 37,7 km/h (5 Bft)
05.06.2014 09:36 12,3 C 11,7 C 79 % 1010,2 hPa 0,0 l/m 0 min 0 min 0,0 UV-I 223 W/m 33,5 km/h (5 Bft)
05.06.2014 09:38 12,3 C 11,7 C 80 % 1010,2 hPa 0,0 l/m 0 min 0 min 0,0 UV-I 158 W/m 33,5 km/h (5 Bft)
05.06.2014 09:40 12,3 C 11,1 C 79 % 1010,2 hPa 0,0 l/m 0 min 0 min 0,0 UV-I 190 W/m 35,6 km/h (5 Bft)
05.06.2014 09:42 12,2 C 11,7 C 80 % 1010,3 hPa 0,0 l/m 0 min 0 min 0,0 UV-I 202 W/m 29,3 km/h (5 Bft)
05.06.2014 09:44 12,2 C 11,7 C 80 % 1010,4 hPa 0,0 l/m 0 min 0 min 0,0 UV-I 186 W/m 33,5 km/h (5 Bft)
05.06.2014 09:46 12,2 C 11,1 C 80 % 1010,4 hPa 0,0 l/m 0 min 0 min 0,0 UV-I 148 W/m 20,9 km/h (4 Bft)
05.06.2014 09:48 12,2 C 11,7 C 81 % 1010,5 hPa 0,0 l/m 0 min 0 min 0,0 UV-I 188 W/m 18,8 km/h (3 Bft)
05.06.2014 09:50 12,2 C 11,7 C 81 % 1010,4 hPa 0,0 l/m 0 min 0 min 0,0 UV-I 186 W/m 27,2 km/h (4 Bft)
05.06.2014 09:52 12,2 C 11,7 C 80 % 1010,3 hPa 0,0 l/m 0 min 0 min 0,5 UV-I 190 W/m 29,3 km/h (5 Bft)
05.06.2014 09:54 12,2 C 11,7 C 81 % 1010,3 hPa 0,0 l/m 0 min 0 min 0,5 UV-I 262 W/m 20,9 km/h (4 Bft)
05.06.2014 09:56 12,3 C 11,7 C 81 % 1010,4 hPa 0,0 l/m 0 min 0 min 0,6 UV-I 269 W/m 25,1 km/h (4 Bft)
05.06.2014 09:58 12,4 C 11,7 C 81 % 1010,3 hPa 0,0 l/m 0 min 0 min 0,0 UV-I 199 W/m 33,5 km/h (5 Bft)
05.06.2014 10:00 12,4 C 11,7 C 80 % 1010,4 hPa 0,0 l/m 0 min 0 min 0,0 UV-I 172 W/m 33,5 km/h (5 Bft)
05.06.2014 10:02 12,4 C 11,7 C 81 % 1010,4 hPa 0,0 l/m 0 min 0 min 0,0 UV-I 134 W/m 31,4 km/h (5 Bft)
05.06.2014 10:06 12,3 C 11,7 C 79 % 1010,5 hPa 0,0 l/m 0 min 0 min 0,0 UV-I 137 W/m 41,8 km/h (6 Bft)
05.06.2014 10:08 12,3 C 11,1 C 80 % 1010,5 hPa 0,0 l/m 0 min 0 min 0,0 UV-I 121 W/m 23,0 km/h (4 Bft)
05.06.2014 10:10 12,3 C 11,7 C 80 % 1010,5 hPa 0,0 l/m 0 min 0 min 0,0 UV-I 171 W/m 20,9 km/h (4 Bft)
05.06.2014 10:12 12,3 C 11,7 C 81 % 1010,5 hPa 0,0 l/m 0 min 0 min 0,5 UV-I 220 W/m 35,6 km/h (5 Bft)
05.06.2014 10:14 12,3 C 11,7 C 81 % 1010,5 hPa 0,0 l/m 0 min 0 min 0,5 UV-I 204 W/m 37,7 km/h (5 Bft)
05.06.2014 10:16 12,3 C 11,7 C 80 % 1010,4 hPa 0,0 l/m 0 min 0 min 0,0 UV-I 181 W/m 37,7 km/h (5 Bft)
05.06.2014 10:18 12,4 C 11,7 C 80 % 1010,5 hPa 0,0 l/m 0 min 0 min 0,0 UV-I 172 W/m 29,3 km/h (5 Bft)
05.06.2014 10:20 12,4 C 11,7 C 80 % 1010,4 hPa 0,0 l/m 0 min 0 min 0,0 UV-I 169 W/m 35,6 km/h (5 Bft)
05.06.2014 10:22 12,4 C 11,7 C 81 % 1010,5 hPa 0,0 l/m 0 min 0 min 0,7 UV-I 206 W/m 20,9 km/h (4 Bft)
05.06.2014 10:24 12,5 C 12,2 C 82 % 1010,6 hPa 0,0 l/m 0 min 0 min 0,6 UV-I 232 W/m 20,9 km/h (4 Bft)
05.06.2014 10:26 12,5 C 11,7 C 80 % 1010,5 hPa 0,0 l/m 0 min 0 min 0,0 UV-I 165 W/m 39,7 km/h (6 Bft)
05.06.2014 10:28 12,5 C 11,7 C 80 % 1010,5 hPa 0,0 l/m 0 min 0 min 0,0 UV-I 167 W/m 18,8 km/h (3 Bft)
05.06.2014 10:30 12,5 C 11,7 C 80 % 1010,5 hPa 0,0 l/m 0 min 0 min 0,0 UV-I 144 W/m 33,5 km/h (5 Bft)
05.06.2014 10:32 12,4 C 11,7 C 80 % 1010,6 hPa 0,0 l/m 0 min 0 min 0,0 UV-I 128 W/m 29,3 km/h (5 Bft)
05.06.2014 10:34 12,4 C 11,7 C 80 % 1010,5 hPa 0,0 l/m 0 min 0 min 0,0 UV-I 90 W/m 29,3 km/h (5 Bft)
05.06.2014 10:36 12,4 C 11,1 C 80 % 1010,6 hPa 0,0 l/m 0 min 0 min 0,0 UV-I 83 W/m 31,4 km/h (5 Bft)
05.06.2014 10:38 12,3 C 11,1 C 81 % 1010,6 hPa 0,0 l/m 0 min 0 min 0,0 UV-I 79 W/m 23,0 km/h (4 Bft)
05.06.2014 10:40 12,3 C 11,1 C 81 % 1010,6 hPa 0,0 l/m 0 min 0 min 0,0 UV-I 105 W/m 20,9 km/h (4 Bft)
05.06.2014 10:42 12,3 C 11,1 C 81 % 1010,5 hPa 0,0 l/m 0 min 0 min 0,0 UV-I 116 W/m 23,0 km/h (4 Bft)
05.06.2014 10:44 12,3 C 11,7 C 82 % 1010,6 hPa 0,0 l/m 0 min 0 min 0,0 UV-I 109 W/m 25,1 km/h (4 Bft)
05.06.2014 10:46 12,3 C 11,1 C 81 % 1010,6 hPa 0,0 l/m 0 min 0 min 0,0 UV-I 93 W/m 25,1 km/h (4 Bft)
05.06.2014 10:48 12,3 C 11,1 C 81 % 1010,5 hPa 0,0 l/m 0 min 0 min 0,0 UV-I 91 W/m 18,8 km/h (3 Bft)
05.06.2014 10:50 12,3 C 11,1 C 81 % 1010,6 hPa 0,0 l/m 0 min 0 min 0,0 UV-I 102 W/m 39,7 km/h (6 Bft)
05.06.2014 10:52 12,3 C 11,1 C 81 % 1010,5 hPa 0,0 l/m 0 min 0 min 0,0 UV-I 125 W/m 31,4 km/h (5 Bft)
05.06.2014 10:54 12,3 C 11,7 C 81 % 1010,6 hPa 0,0 l/m 0 min 0 min 0,0 UV-I 142 W/m 31,4 km/h (5 Bft)
05.06.2014 10:56 12,4 C 11,7 C 81 % 1010,6 hPa 0,0 l/m 0 min 0 min 0,8 UV-I 213 W/m 20,9 km/h (4 Bft)
05.06.2014 10:58 12,5 C 11,7 C 82 % 1010,7 hPa 0,0 l/m 0 min 0 min 0,7 UV-I 248 W/m 29,3 km/h (5 Bft)
05.06.2014 11:00 12,6 C 12,2 C 81 % 1010,6 hPa 0,0 l/m 0 min 0 min 0,0 UV-I 176 W/m 23,0 km/h (4 Bft)
05.06.2014 11:02 12,7 C 11,7 C 80 % 1010,6 hPa 0,0 l/m 0 min 0 min 0,0 UV-I 95 W/m 35,6 km/h (5 Bft)
05.06.2014 11:06 12,7 C 11,7 C 80 % 1010,6 hPa 0,0 l/m 0 min 0 min 0,0 UV-I 91 W/m 31,4 km/h (5 Bft)
05.06.2014 11:08 12,7 C 11,7 C 80 % 1010,6 hPa 0,0 l/m 0 min 0 min 0,0 UV-I 86 W/m 31,4 km/h (5 Bft)
05.06.2014 11:10 12,6 C 11,7 C 80 % 1010,6 hPa 0,0 l/m 0 min 0 min 0,0 UV-I 91 W/m 23,0 km/h (4 Bft)
05.06.2014 11:12 12,6 C 11,7 C 80 % 1010,7 hPa 0,0 l/m 0 min 0 min 0,0 UV-I 90 W/m 35,6 km/h (5 Bft)
05.06.2014 11:14 12,6 C 11,7 C 80 % 1010,7 hPa 0,0 l/m 0 min 0 min 0,0 UV-I 56 W/m 31,4 km/h (5 Bft)
05.06.2014 11:16 12,6 C 11,1 C 81 % 1010,6 hPa 0,0 l/m 0 min 0 min 0,0 UV-I 58 W/m 35,6 km/h (5 Bft)
05.06.2014 11:18 12,5 C 11,1 C 81 % 1010,7 hPa 0,0 l/m 0 min 0 min 0,0 UV-I 74 W/m 33,5 km/h (5 Bft)
05.06.2014 11:20 12,5 C 11,1 C 81 % 1010,7 hPa 0,0 l/m 0 min 0 min 0,0 UV-I 118 W/m 27,2 km/h (4 Bft)
05.06.2014 11:22 12,5 C 11,1 C 82 % 1010,8 hPa 0,0 l/m 0 min 2 min 0,5 UV-I 162 W/m 27,2 km/h (4 Bft)
05.06.2014 11:24 12,6 C 11,1 C 82 % 1010,8 hPa 0,0 l/m 0 min 2 min 0,7 UV-I 220 W/m 31,4 km/h (5 Bft)
05.06.2014 11:26 12,5 C 10,6 C 83 % 1010,9 hPa 0,0 l/m 0 min 2 min 0,9 UV-I 232 W/m 39,7 km/h (6 Bft)
05.06.2014 11:28 12,5 C 10,6 C 84 % 1010,9 hPa 0,0 l/m 0 min 2 min 0,8 UV-I 221 W/m 29,3 km/h (5 Bft)
05.06.2014 11:30 12,4 C 10,6 C 85 % 1010,9 hPa 0,0 l/m 0 min 2 min 0,6 UV-I 202 W/m 25,1 km/h (4 Bft)
05.06.2014 11:32 12,3 C 10,6 C 86 % 1011,1 hPa 0,2 l/m 0 min 2 min 0,0 UV-I 141 W/m 33,5 km/h (5 Bft)
05.06.2014 11:34 12,2 C 10,6 C 87 % 1011,0 hPa 0,0 l/m 0 min 2 min 0,0 UV-I 111 W/m 23,0 km/h (4 Bft)
05.06.2014 11:36 12,1 C 10,0 C 87 % 1011,1 hPa 0,0 l/m 0 min 2 min 0,0 UV-I 74 W/m 27,2 km/h (4 Bft)
05.06.2014 11:38 11,9 C 10,0 C 87 % 1011,1 hPa 0,0 l/m 0 min 0 min 0,0 UV-I 91 W/m 27,2 km/h (4 Bft)
05.06.2014 11:40 11,9 C 10,0 C 87 % 1011,1 hPa 0,0 l/m 0 min 0 min 0,0 UV-I 118 W/m 25,1 km/h (4 Bft)
05.06.2014 11:42 11,9 C 10,0 C 87 % 1011,2 hPa 0,0 l/m 0 min 0 min 0,0 UV-I 128 W/m 25,1 km/h (4 Bft)
05.06.2014 11:44 11,9 C 10,6 C 88 % 1011,1 hPa 0,0 l/m 0 min 0 min 0,0 UV-I 148 W/m 23,0 km/h (4 Bft)
05.06.2014 11:46 12,0 C 10,6 C 87 % 1011,2 hPa 0,0 l/m 0 min 0 min 0,0 UV-I 153 W/m 16,7 km/h (3 Bft)
05.06.2014 11:48 12,1 C 10,6 C 87 % 1011,3 hPa 0,0 l/m 0 min 0 min 0,0 UV-I 134 W/m 31,4 km/h (5 Bft)
05.06.2014 11:50 12,1 C 10,6 C 87 % 1011,2 hPa 0,0 l/m 0 min 2 min 0,0 UV-I 120 W/m 31,4 km/h (5 Bft)
05.06.2014 11:52 12,2 C 10,6 C 86 % 1011,2 hPa 0,0 l/m 0 min 2 min 0,0 UV-I 114 W/m 25,1 km/h (4 Bft)
05.06.2014 11:54 12,2 C 10,6 C 86 % 1011,3 hPa 0,0 l/m 0 min 2 min 0,0 UV-I 91 W/m 23,0 km/h (4 Bft)
05.06.2014 11:56 12,2 C 10,0 C 86 % 1011,3 hPa 0,0 l/m 0 min 0 min 0,0 UV-I 91 W/m 25,1 km/h (4 Bft)
05.06.2014 11:58 12,2 C 10,0 C 85 % 1011,4 hPa 0,0 l/m 0 min 0 min 0,0 UV-I 88 W/m 18,8 km/h (3 Bft)
05.06.2014 12:00 12,3 C 10,6 C 86 % 1011,4 hPa 0,0 l/m 0 min 0 min 0,5 UV-I 162 W/m 27,2 km/h (4 Bft)
05.06.2014 12:02 12,3 C 10,6 C 86 % 1011,4 hPa 0,0 l/m 0 min 0 min 0,0 UV-I 141 W/m 37,7 km/h (5 Bft)
05.06.2014 12:06 12,5 C 10,6 C 85 % 1011,5 hPa 0,0 l/m 0 min 2 min 0,0 UV-I 137 W/m 35,6 km/h (5 Bft)
05.06.2014 12:08 12,5 C 10,6 C 85 % 1011,4 hPa 0,0 l/m 0 min 2 min 0,0 UV-I 134 W/m 33,5 km/h (5 Bft)
05.06.2014 12:10 12,5 C 10,6 C 85 % 1011,5 hPa 0,0 l/m 0 min 2 min 0,0 UV-I 114 W/m 27,2 km/h (4 Bft)
05.06.2014 12:12 12,4 C 10,6 C 86 % 1011,5 hPa 0,0 l/m 0 min 2 min 0,0 UV-I 84 W/m 18,8 km/h (3 Bft)
05.06.2014 12:14 12,4 C 10,6 C 87 % 1011,4 hPa 0,0 l/m 0 min 2 min 0,0 UV-I 76 W/m 18,8 km/h (3 Bft)
05.06.2014 12:16 12,3 C 10,6 C 87 % 1011,5 hPa 0,0 l/m 0 min 2 min 0,0 UV-I 62 W/m 14,6 km/h (3 Bft)
05.06.2014 12:18 12,3 C 10,6 C 88 % 1011,5 hPa 0,0 l/m 0 min 2 min 0,0 UV-I 58 W/m 12,6 km/h (3 Bft)
05.06.2014 12:20 12,2 C 10,6 C 88 % 1011,4 hPa 0,0 l/m 0 min 0 min 0,0 UV-I 63 W/m 6,3 km/h (2 Bft)
05.06.2014 12:22 12,2 C 10,6 C 88 % 1011,5 hPa 0,0 l/m 0 min 2 min 0,0 UV-I 70 W/m 14,6 km/h (3 Bft)
05.06.2014 12:24 12,2 C 10,6 C 88 % 1011,5 hPa 0,0 l/m 0 min 0 min 0,0 UV-I 84 W/m 18,8 km/h (3 Bft)
05.06.2014 12:26 12,2 C 10,6 C 88 % 1011,5 hPa 0,0 l/m 0 min 0 min 0,0 UV-I 79 W/m 18,8 km/h (3 Bft)
05.06.2014 12:28 12,3 C 10,6 C 87 % 1011,6 hPa 0,0 l/m 0 min 0 min 0,0 UV-I 90 W/m 29,3 km/h (5 Bft)
05.06.2014 12:30 12,4 C 10,6 C 87 % 1011,6 hPa 0,0 l/m 0 min 0 min 0,0 UV-I 116 W/m 39,7 km/h (6 Bft)
05.06.2014 12:32 12,4 C 10,6 C 86 % 1011,5 hPa 0,0 l/m 0 min 0 min 0,0 UV-I 128 W/m 25,1 km/h (4 Bft)
05.06.2014 12:34 12,6 C 10,6 C 85 % 1011,5 hPa 0,0 l/m 0 min 2 min 0,0 UV-I 107 W/m 27,2 km/h (4 Bft)
05.06.2014 12:36 12,6 C 10,6 C 85 % 1011,6 hPa 0,0 l/m 0 min 0 min 0,0 UV-I 91 W/m 20,9 km/h (4 Bft)
05.06.2014 12:38 12,7 C 10,6 C 85 % 1011,6 hPa 0,0 l/m 0 min 0 min 0,0 UV-I 91 W/m 31,4 km/h (5 Bft)
05.06.2014 12:40 12,7 C 10,6 C 85 % 1011,6 hPa 0,0 l/m 0 min 0 min 0,0 UV-I 116 W/m 31,4 km/h (5 Bft)
05.06.2014 12:42 12,7 C 11,1 C 85 % 1011,6 hPa 0,0 l/m 0 min 0 min 0,0 UV-I 120 W/m 23,0 km/h (4 Bft)
05.06.2014 12:44 12,8 C 10,6 C 85 % 1011,6 hPa 0,0 l/m 0 min 0 min 0,0 UV-I 81 W/m 27,2 km/h (4 Bft)
05.06.2014 12:46 12,8 C 11,1 C 84 % 1011,6 hPa 0,0 l/m 0 min 0 min 0,0 UV-I 69 W/m 25,1 km/h (4 Bft)
05.06.2014 12:48 12,8 C 11,1 C 85 % 1011,9 hPa 0,0 l/m 0 min 2 min 0,0 UV-I 70 W/m 39,7 km/h (6 Bft)
05.06.2014 12:50 12,8 C 11,1 C 85 % 1011,9 hPa 0,0 l/m 0 min 2 min 0,0 UV-I 62 W/m 39,7 km/h (6 Bft)
05.06.2014 12:52 12,7 C 11,1 C 85 % 1011,9 hPa 0,0 l/m 0 min 2 min 0,0 UV-I 76 W/m 43,9 km/h (6 Bft)
05.06.2014 12:54 12,7 C 11,1 C 84 % 1012,0 hPa 0,0 l/m 0 min 2 min 0,0 UV-I 74 W/m 37,7 km/h (5 Bft)
05.06.2014 12:56 12,6 C 11,1 C 85 % 1011,9 hPa 0,0 l/m 0 min 2 min 0,0 UV-I 79 W/m 37,7 km/h (5 Bft)
05.06.2014 12:58 12,6 C 11,1 C 86 % 1011,9 hPa 0,0 l/m 0 min 2 min 0,0 UV-I 79 W/m 33,5 km/h (5 Bft)
05.06.2014 13:00 12,5 C 11,1 C 86 % 1012,0 hPa 0,0 l/m 0 min 2 min 0,0 UV-I 76 W/m 31,4 km/h (5 Bft)
05.06.2014 13:02 12,4 C 11,1 C 87 % 1012,0 hPa 0,0 l/m 0 min 2 min 0,0 UV-I 91 W/m 25,1 km/h (4 Bft)
05.06.2014 13:06 12,3 C 11,1 C 88 % 1011,9 hPa 0,0 l/m 0 min 2 min 1,0 UV-I 204 W/m 27,2 km/h (4 Bft)
05.06.2014 13:08 12,3 C 11,1 C 89 % 1012,0 hPa 0,0 l/m 0 min 0 min 0,9 UV-I 204 W/m 23,0 km/h (4 Bft)
05.06.2014 13:10 12,3 C 11,7 C 89 % 1012,0 hPa 0,0 l/m 0 min 0 min 0,9 UV-I 207 W/m 23,0 km/h (4 Bft)
05.06.2014 13:12 12,4 C 11,7 C 89 % 1012,0 hPa 0,0 l/m 0 min 0 min 1,0 UV-I 216 W/m 20,9 km/h (4 Bft)
05.06.2014 13:14 12,5 C 11,7 C 89 % 1012,0 hPa 0,0 l/m 0 min 0 min 0,6 UV-I 179 W/m 25,1 km/h (4 Bft)
05.06.2014 13:16 12,6 C 11,7 C 89 % 1012,0 hPa 0,0 l/m 0 min 0 min 0,7 UV-I 199 W/m 31,4 km/h (5 Bft)
05.06.2014 13:18 12,7 C 11,7 C 88 % 1012,1 hPa 0,0 l/m 0 min 0 min 1,1 UV-I 225 W/m 25,1 km/h (4 Bft)
05.06.2014 13:20 12,7 C 12,2 C 88 % 1012,0 hPa 0,0 l/m 0 min 0 min 1,3 UV-I 244 W/m 25,1 km/h (4 Bft)
05.06.2014 13:22 12,9 C 12,2 C 87 % 1012,0 hPa 0,0 l/m 0 min 0 min 1,3 UV-I 250 W/m 16,7 km/h (3 Bft)
05.06.2014 13:24 13,0 C 12,8 C 88 % 1012,0 hPa 0,0 l/m 0 min 0 min 1,3 UV-I 264 W/m 37,7 km/h (5 Bft)
05.06.2014 13:26 13,2 C 12,8 C 86 % 1012,0 hPa 0,0 l/m 0 min 0 min 1,4 UV-I 269 W/m 29,3 km/h (5 Bft)
05.06.2014 13:28 13,2 C 12,8 C 86 % 1012,0 hPa 0,0 l/m 0 min 0 min 1,8 UV-I 316 W/m 23,0 km/h (4 Bft)
05.06.2014 13:30 13,4 C 13,3 C 86 % 1012,0 hPa 0,0 l/m 0 min 0 min 2,0 UV-I 341 W/m 27,2 km/h (4 Bft)
05.06.2014 13:32 13,6 C 13,9 C 86 % 1012,0 hPa 0,0 l/m 0 min 0 min 1,9 UV-I 338 W/m 25,1 km/h (4 Bft)
05.06.2014 13:34 13,8 C 13,9 C 85 % 1012,1 hPa 0,0 l/m 0 min 0 min 1,6 UV-I 301 W/m 33,5 km/h (5 Bft)
05.06.2014 13:36 13,8 C 13,9 C 84 % 1012,1 hPa 0,0 l/m 0 min 0 min 1,6 UV-I 288 W/m 27,2 km/h (4 Bft)
05.06.2014 13:38 13,8 C 13,3 C 83 % 1012,2 hPa 0,0 l/m 0 min 0 min 1,3 UV-I 272 W/m 46,0 km/h (6 Bft)
05.06.2014 13:40 13,9 C 13,3 C 83 % 1012,0 hPa 0,0 l/m 0 min 0 min 1,6 UV-I 302 W/m 29,3 km/h (5 Bft)
05.06.2014 13:42 13,9 C 13,9 C 83 % 1012,1 hPa 0,0 l/m 0 min 0 min 1,9 UV-I 346 W/m 27,2 km/h (4 Bft)
05.06.2014 13:44 14,1 C 13,9 C 83 % 1012,2 hPa 0,0 l/m 0 min 0 min 2,4 UV-I 362 W/m 27,2 km/h (4 Bft)
05.06.2014 13:46 14,2 C 14,4 C 83 % 1012,1 hPa 0,0 l/m 0 min 0 min 2,1 UV-I 355 W/m 16,7 km/h (3 Bft)
05.06.2014 13:48 14,2 C 14,4 C 82 % 1012,1 hPa 0,0 l/m 0 min 0 min 2,1 UV-I 355 W/m 33,5 km/h (5 Bft)
05.06.2014 13:50 14,3 C 14,4 C 82 % 1012,2 hPa 0,0 l/m 0 min 0 min 2,2 UV-I 367 W/m 35,6 km/h (5 Bft)
05.06.2014 13:52 14,4 C 14,4 C 81 % 1012,2 hPa 0,0 l/m 0 min 0 min 2,2 UV-I 383 W/m 33,5 km/h (5 Bft)
05.06.2014 13:54 14,4 C 14,4 C 80 % 1012,2 hPa 0,0 l/m 0 min 0 min 2,5 UV-I 394 W/m 31,4 km/h (5 Bft)
05.06.2014 13:56 14,6 C 14,4 C 81 % 1012,2 hPa 0,0 l/m 0 min 0 min 2,5 UV-I 399 W/m 16,7 km/h (3 Bft)
05.06.2014 13:58 14,7 C 15,0 C 81 % 1012,1 hPa 0,0 l/m 0 min 0 min 2,6 UV-I 403 W/m 35,6 km/h (5 Bft)
05.06.2014 14:00 14,7 C 15,0 C 80 % 1012,3 hPa 0,0 l/m 0 min 0 min 2,8 UV-I 408 W/m 41,8 km/h (6 Bft)
05.06.2014 14:02 14,8 C 15,0 C 80 % 1012,2 hPa 0,0 l/m 0 min 0 min 3,2 UV-I 446 W/m 31,4 km/h (5 Bft)
05.06.2014 14:06 15,0 C 15,0 C 78 % 1012,2 hPa 0,0 l/m 0 min 0 min 2,7 UV-I 413 W/m 46,0 km/h (6 Bft)
05.06.2014 14:08 15,0 C 15,0 C 77 % 1012,2 hPa 0,0 l/m 0 min 0 min 2,2 UV-I 383 W/m 39,7 km/h (6 Bft)
05.06.2014 14:10 15,0 C 15,0 C 78 % 1012,2 hPa 0,0 l/m 0 min 0 min 3,1 UV-I 420 W/m 37,7 km/h (5 Bft)
05.06.2014 14:12 15,1 C 15,0 C 77 % 1012,3 hPa 0,0 l/m 0 min 0 min 5,4 UV-I 410 W/m 31,4 km/h (5 Bft)
05.06.2014 14:14 15,3 C 15,6 C 76 % 1012,2 hPa 0,0 l/m 2 min 0 min 5,4 UV-I 942 W/m 54,4 km/h (7 Bft)
05.06.2014 14:16 15,6 C 16,1 C 77 % 1012,2 hPa 0,0 l/m 2 min 0 min 5,1 UV-I 912 W/m 48,1 km/h (6 Bft)
05.06.2014 14:18 16,0 C 16,1 C 77 % 1012,2 hPa 0,0 l/m 2 min 0 min 5,0 UV-I 1007 W/m 46,0 km/h (6 Bft)
05.06.2014 14:20 16,2 C 16,1 C 74 % 1012,2 hPa 0,0 l/m 2 min 0 min 5,2 UV-I 1007 W/m 54,4 km/h (7 Bft)
05.06.2014 14:22 16,3 C 16,7 C 75 % 1012,2 hPa 0,0 l/m 2 min 0 min 2,6 UV-I 993 W/m 39,7 km/h (6 Bft)
05.06.2014 14:24 16,3 C 16,1 C 74 % 1012,3 hPa 0,0 l/m 0 min 0 min 1,8 UV-I 279 W/m 31,4 km/h (5 Bft)
05.06.2014 14:26 16,2 C 15,6 C 73 % 1012,3 hPa 0,0 l/m 0 min 0 min 2,1 UV-I 255 W/m 37,7 km/h (5 Bft)
05.06.2014 14:28 16,0 C 15,6 C 72 % 1012,2 hPa 0,0 l/m 0 min 0 min 1,0 UV-I 244 W/m 43,9 km/h (6 Bft)
05.06.2014 14:30 15,8 C 15,0 C 72 % 1012,4 hPa 0,0 l/m 0 min 0 min 0,0 UV-I 171 W/m 46,0 km/h (6 Bft)
05.06.2014 14:32 15,7 C 14,4 C 73 % 1012,4 hPa 0,0 l/m 0 min 0 min 0,0 UV-I 156 W/m 41,8 km/h (6 Bft)
05.06.2014 14:34 15,5 C 14,4 C 73 % 1012,4 hPa 0,0 l/m 0 min 0 min 0,6 UV-I 171 W/m 33,5 km/h (5 Bft)
05.06.2014 14:36 15,4 C 14,4 C 75 % 1012,4 hPa 0,0 l/m 0 min 0 min 0,5 UV-I 172 W/m 35,6 km/h (5 Bft)
05.06.2014 14:38 15,2 C 13,9 C 74 % 1012,6 hPa 0,0 l/m 0 min 2 min 0,7 UV-I 195 W/m 46,0 km/h (6 Bft)
05.06.2014 14:40 15,1 C 13,9 C 75 % 1012,5 hPa 0,0 l/m 0 min 0 min 0,9 UV-I 206 W/m 35,6 km/h (5 Bft)
05.06.2014 14:42 15,0 C 13,9 C 76 % 1012,5 hPa 0,0 l/m 0 min 0 min 0,9 UV-I 218 W/m 33,5 km/h (5 Bft)
05.06.2014 14:44 15,0 C 13,9 C 77 % 1012,5 hPa 0,0 l/m 0 min 0 min 0,8 UV-I 216 W/m 23,0 km/h (4 Bft)
05.06.2014 14:46 15,0 C 14,4 C 77 % 1012,5 hPa 0,0 l/m 0 min 0 min 0,9 UV-I 234 W/m 23,0 km/h (4 Bft)
05.06.2014 14:48 15,0 C 14,4 C 77 % 1012,5 hPa 0,0 l/m 0 min 2 min 1,1 UV-I 237 W/m 20,9 km/h (4 Bft)
05.06.2014 14:50 15,1 C 14,4 C 77 % 1012,5 hPa 0,0 l/m 0 min 0 min 1,3 UV-I 271 W/m 23,0 km/h (4 Bft)
05.06.2014 14:52 15,0 C 14,4 C 76 % 1012,5 hPa 0,0 l/m 0 min 0 min 1,6 UV-I 302 W/m 37,7 km/h (5 Bft)
05.06.2014 14:54 15,1 C 15,0 C 76 % 1012,5 hPa 0,0 l/m 0 min 0 min 1,6 UV-I 308 W/m 27,2 km/h (4 Bft)
05.06.2014 14:56 15,2 C 15,0 C 76 % 1012,5 hPa 0,0 l/m 0 min 0 min 1,2 UV-I 267 W/m 25,1 km/h (4 Bft)
05.06.2014 14:58 15,2 C 15,0 C 76 % 1012,5 hPa 0,0 l/m 0 min 0 min 1,1 UV-I 262 W/m 27,2 km/h (4 Bft)
05.06.2014 15:00 15,3 C 15,0 C 75 % 1012,4 hPa 0,0 l/m 0 min 0 min 1,7 UV-I 330 W/m 25,1 km/h (4 Bft)
05.06.2014 15:02 15,3 C 15,0 C 75 % 1012,5 hPa 0,0 l/m 0 min 0 min 2,0 UV-I 367 W/m 27,2 km/h (4 Bft)
05.06.2014 15:06 15,7 C 15,6 C 75 % 1012,5 hPa 0,0 l/m 0 min 0 min 3,4 UV-I 336 W/m 25,1 km/h (4 Bft)
05.06.2014 15:08 15,9 C 16,1 C 75 % 1012,6 hPa 0,0 l/m 2 min 0 min 3,3 UV-I 494 W/m 41,8 km/h (6 Bft)
05.06.2014 15:10 16,1 C 16,1 C 73 % 1012,5 hPa 0,0 l/m 2 min 0 min 2,9 UV-I 494 W/m 29,3 km/h (5 Bft)
05.06.2014 15:12 16,5 C 16,7 C 72 % 1012,5 hPa 0,0 l/m 2 min 0 min 2,7 UV-I 1085 W/m 33,5 km/h (5 Bft)
05.06.2014 15:14 16,7 C 16,7 C 70 % 1012,5 hPa 0,0 l/m 2 min 0 min 2,5 UV-I 1085 W/m 39,7 km/h (6 Bft)
05.06.2014 15:16 16,7 C 16,1 C 69 % 1012,6 hPa 0,0 l/m 2 min 0 min 1,9 UV-I 1085 W/m 46,0 km/h (6 Bft)
05.06.2014 15:18 16,5 C 16,1 C 68 % 1012,5 hPa 0,0 l/m 0 min 0 min 1,8 UV-I 315 W/m 39,7 km/h (6 Bft)
05.06.2014 15:20 16,3 C 15,6 C 69 % 1012,6 hPa 0,0 l/m 0 min 0 min 2,3 UV-I 432 W/m 48,1 km/h (6 Bft)
05.06.2014 15:22 16,3 C 16,1 C 72 % 1012,6 hPa 0,0 l/m 2 min 0 min 2,2 UV-I 457 W/m 41,8 km/h (6 Bft)
05.06.2014 15:24 16,3 C 16,7 C 72 % 1012,7 hPa 0,0 l/m 2 min 0 min 4,4 UV-I 457 W/m 48,1 km/h (6 Bft)
05.06.2014 15:26 16,5 C 16,7 C 71 % 1012,7 hPa 0,0 l/m 2 min 0 min 3,7 UV-I 457 W/m 41,8 km/h (6 Bft)
05.06.2014 15:28 16,6 C 16,7 C 70 % 1012,6 hPa 0,0 l/m 2 min 0 min 4,5 UV-I 457 W/m 39,7 km/h (6 Bft)
05.06.2014 15:30 16,6 C 16,7 C 71 % 1012,7 hPa 0,0 l/m 2 min 0 min 2,8 UV-I 480 W/m 37,7 km/h (5 Bft)
05.06.2014 15:32 16,7 C 17,2 C 73 % 1012,7 hPa 0,0 l/m 2 min 0 min 1,7 UV-I 480 W/m 46,0 km/h (6 Bft)
05.06.2014 15:34 16,6 C 16,1 C 70 % 1012,7 hPa 0,0 l/m 0 min 0 min 1,4 UV-I 279 W/m 39,7 km/h (6 Bft)
05.06.2014 15:36 16,3 C 16,1 C 71 % 1012,7 hPa 0,0 l/m 0 min 0 min 1,4 UV-I 292 W/m 29,3 km/h (5 Bft)
05.06.2014 15:38 16,2 C 15,6 C 71 % 1012,6 hPa 0,0 l/m 0 min 0 min 1,4 UV-I 290 W/m 35,6 km/h (5 Bft)
05.06.2014 15:40 16,1 C 15,6 C 72 % 1012,7 hPa 0,0 l/m 0 min 0 min 1,5 UV-I 304 W/m 31,4 km/h (5 Bft)
05.06.2014 15:42 16,1 C 16,1 C 72 % 1012,7 hPa 0,0 l/m 0 min 0 min 2,4 UV-I 353 W/m 35,6 km/h (5 Bft)
05.06.2014 15:44 16,3 C 16,7 C 73 % 1012,7 hPa 0,0 l/m 2 min 0 min 3,1 UV-I 1046 W/m 27,2 km/h (4 Bft)
05.06.2014 15:46 16,8 C 17,2 C 74 % 1012,6 hPa 0,0 l/m 2 min 0 min 3,8 UV-I 1046 W/m 23,0 km/h (4 Bft)
05.06.2014 15:48 17,3 C 17,2 C 72 % 1012,7 hPa 0,0 l/m 0 min 0 min 2,1 UV-I 401 W/m 18,8 km/h (3 Bft)
05.06.2014 15:50 17,2 C 16,7 C 69 % 1012,7 hPa 0,0 l/m 0 min 0 min 1,9 UV-I 371 W/m 33,5 km/h (5 Bft)
05.06.2014 15:52 17,0 C 16,1 C 69 % 1012,7 hPa 0,0 l/m 0 min 0 min 1,8 UV-I 267 W/m 31,4 km/h (5 Bft)
05.06.2014 15:54 16,8 C 16,1 C 69 % 1012,7 hPa 0,0 l/m 0 min 0 min 1,6 UV-I 343 W/m 31,4 km/h (5 Bft)
05.06.2014 15:56 16,7 C 16,1 C 70 % 1012,6 hPa 0,0 l/m 0 min 0 min 2,1 UV-I 378 W/m 27,2 km/h (4 Bft)
05.06.2014 15:58 16,7 C 16,1 C 71 % 1012,6 hPa 0,0 l/m 0 min 0 min 1,6 UV-I 309 W/m 29,3 km/h (5 Bft)
05.06.2014 16:00 16,7 C 16,1 C 70 % 1012,6 hPa 0,0 l/m 0 min 0 min 1,2 UV-I 230 W/m 31,4 km/h (5 Bft)
05.06.2014 16:02 16,7 C 16,1 C 70 % 1012,6 hPa 0,0 l/m 0 min 0 min 0,9 UV-I 193 W/m 29,3 km/h (5 Bft)
05.06.2014 16:06 16,5 C 15,6 C 71 % 1012,7 hPa 0,0 l/m 0 min 0 min 0,0 UV-I 90 W/m 35,6 km/h (5 Bft)
05.06.2014 16:08 16,4 C 14,4 C 71 % 1013,1 hPa 0,4 l/m 0 min 2 min 0,0 UV-I 54 W/m 39,7 km/h (6 Bft)
05.06.2014 16:10 16,1 C 11,7 C 75 % 1013,0 hPa 1,0 l/m 0 min 2 min 0,0 UV-I 40 W/m 41,8 km/h (6 Bft)
05.06.2014 16:12 15,3 C 11,1 C 78 % 1013,1 hPa 0,4 l/m 0 min 2 min 0,0 UV-I 70 W/m 37,7 km/h (5 Bft)
05.06.2014 16:14 14,6 C 11,7 C 81 % 1013,1 hPa 0,0 l/m 0 min 2 min 0,0 UV-I 149 W/m 27,2 km/h (4 Bft)
05.06.2014 16:16 14,0 C 11,7 C 85 % 1013,2 hPa 0,0 l/m 0 min 2 min 0,5 UV-I 197 W/m 29,3 km/h (5 Bft)
05.06.2014 16:18 13,7 C 12,2 C 87 % 1013,1 hPa 0,0 l/m 2 min 2 min 1,4 UV-I 464 W/m 27,2 km/h (4 Bft)
05.06.2014 16:20 13,6 C 12,8 C 89 % 1013,1 hPa 0,0 l/m 2 min 0 min 1,2 UV-I 466 W/m 23,0 km/h (4 Bft)
05.06.2014 16:22 13,6 C 12,8 C 89 % 1013,0 hPa 0,0 l/m 0 min 0 min 1,0 UV-I 251 W/m 16,7 km/h (3 Bft)
05.06.2014 16:24 13,6 C 12,8 C 90 % 1012,9 hPa 0,0 l/m 0 min 0 min 0,7 UV-I 220 W/m 18,8 km/h (3 Bft)
05.06.2014 16:26 13,6 C 12,2 C 90 % 1013,0 hPa 0,0 l/m 0 min 0 min 0,7 UV-I 225 W/m 18,8 km/h (3 Bft)
05.06.2014 16:28 13,7 C 12,8 C 90 % 1013,1 hPa 0,0 l/m 0 min 0 min 0,9 UV-I 239 W/m 14,6 km/h (3 Bft)
05.06.2014 16:30 13,8 C 13,3 C 91 % 1013,0 hPa 0,0 l/m 0 min 0 min 2,5 UV-I 352 W/m 18,8 km/h (3 Bft)
05.06.2014 16:32 14,2 C 13,9 C 92 % 1013,1 hPa 0,0 l/m 2 min 0 min 1,8 UV-I 422 W/m 16,7 km/h (3 Bft)
05.06.2014 16:34 14,4 C 13,9 C 92 % 1013,0 hPa 0,0 l/m 0 min 0 min 1,5 UV-I 381 W/m 12,6 km/h (3 Bft)
05.06.2014 16:36 14,6 C 13,9 C 91 % 1013,0 hPa 0,0 l/m 0 min 0 min 1,9 UV-I 332 W/m 14,6 km/h (3 Bft)
05.06.2014 16:38 14,8 C 14,4 C 91 % 1013,0 hPa 0,0 l/m 2 min 0 min 2,4 UV-I 802 W/m 14,6 km/h (3 Bft)
05.06.2014 16:40 15,0 C 14,4 C 90 % 1012,9 hPa 0,0 l/m 2 min 0 min 2,6 UV-I 752 W/m 14,6 km/h (3 Bft)
05.06.2014 16:42 15,4 C 15,0 C 89 % 1012,9 hPa 0,0 l/m 2 min 0 min 2,5 UV-I 719 W/m 10,5 km/h (2 Bft)
05.06.2014 16:44 15,7 C 14,4 C 86 % 1012,9 hPa 0,0 l/m 2 min 0 min 1,2 UV-I 719 W/m 12,6 km/h (3 Bft)
05.06.2014 16:46 15,9 C 14,4 C 86 % 1012,9 hPa 0,0 l/m 0 min 0 min 0,9 UV-I 230 W/m 8,4 km/h (2 Bft)
05.06.2014 16:48 15,8 C 14,4 C 85 % 1012,9 hPa 0,0 l/m 0 min 0 min 0,9 UV-I 269 W/m 12,6 km/h (3 Bft)
05.06.2014 16:50 15,8 C 14,4 C 84 % 1012,8 hPa 0,0 l/m 0 min 0 min 0,7 UV-I 246 W/m 12,6 km/h (3 Bft)
05.06.2014 16:52 15,7 C 14,4 C 83 % 1012,8 hPa 0,0 l/m 0 min 0 min 0,5 UV-I 179 W/m 10,5 km/h (2 Bft)
05.06.2014 16:54 15,8 C 14,4 C 83 % 1012,9 hPa 0,0 l/m 0 min 0 min 0,0 UV-I 151 W/m 10,5 km/h (2 Bft)
05.06.2014 16:56 15,8 C 13,9 C 84 % 1012,9 hPa 0,0 l/m 0 min 0 min 0,7 UV-I 163 W/m 6,3 km/h (2 Bft)
05.06.2014 16:58 15,8 C 14,4 C 83 % 1012,9 hPa 0,0 l/m 0 min 0 min 0,8 UV-I 239 W/m 12,6 km/h (3 Bft)
05.06.2014 17:00 15,8 C 14,4 C 83 % 1012,9 hPa 0,0 l/m 0 min 0 min 0,5 UV-I 171 W/m 12,6 km/h (3 Bft)
05.06.2014 17:02 15,8 C 14,4 C 82 % 1012,9 hPa 0,0 l/m 0 min 0 min 0,0 UV-I 148 W/m 16,7 km/h (3 Bft)
05.06.2014 17:06 15,8 C 13,9 C 79 % 1012,9 hPa 0,0 l/m 0 min 0 min 0,0 UV-I 174 W/m 25,1 km/h (4 Bft)
05.06.2014 17:08 15,8 C 13,9 C 78 % 1012,9 hPa 0,0 l/m 0 min 0 min 0,0 UV-I 186 W/m 25,1 km/h (4 Bft)
05.06.2014 17:10 15,7 C 13,9 C 77 % 1012,9 hPa 0,0 l/m 0 min 0 min 0,5 UV-I 221 W/m 18,8 km/h (3 Bft)
05.06.2014 17:12 15,9 C 13,9 C 77 % 1012,9 hPa 0,0 l/m 2 min 0 min 1,5 UV-I 687 W/m 20,9 km/h (4 Bft)
05.06.2014 17:14 16,2 C 14,4 C 76 % 1013,0 hPa 0,0 l/m 2 min 0 min 0,8 UV-I 687 W/m 18,8 km/h (3 Bft)
05.06.2014 17:16 16,3 C 13,9 C 74 % 1013,0 hPa 0,0 l/m 0 min 0 min 0,0 UV-I 137 W/m 27,2 km/h (4 Bft)
05.06.2014 17:18 16,2 C 13,9 C 73 % 1012,9 hPa 0,0 l/m 0 min 0 min 0,0 UV-I 178 W/m 23,0 km/h (4 Bft)
05.06.2014 17:20 16,2 C 13,9 C 74 % 1012,9 hPa 0,0 l/m 2 min 0 min 1,6 UV-I 698 W/m 33,5 km/h (5 Bft)
05.06.2014 17:22 16,5 C 14,4 C 74 % 1012,9 hPa 0,0 l/m 2 min 0 min 1,7 UV-I 675 W/m 35,6 km/h (5 Bft)
05.06.2014 17:24 16,8 C 14,4 C 74 % 1012,9 hPa 0,0 l/m 2 min 0 min 0,9 UV-I 675 W/m 27,2 km/h (4 Bft)
05.06.2014 17:26 16,9 C 14,4 C 69 % 1012,9 hPa 0,0 l/m 0 min 0 min 0,6 UV-I 155 W/m 29,3 km/h (5 Bft)
05.06.2014 17:28 16,8 C 13,9 C 70 % 1012,9 hPa 0,0 l/m 0 min 0 min 0,0 UV-I 134 W/m 25,1 km/h (4 Bft)
05.06.2014 17:30 16,7 C 13,9 C 72 % 1012,9 hPa 0,0 l/m 0 min 0 min 0,0 UV-I 125 W/m 18,8 km/h (3 Bft)
05.06.2014 17:32 16,5 C 13,9 C 71 % 1013,0 hPa 0,0 l/m 0 min 0 min 0,0 UV-I 130 W/m 37,7 km/h (5 Bft)
05.06.2014 17:34 16,4 C 13,9 C 72 % 1012,9 hPa 0,0 l/m 0 min 0 min 0,0 UV-I 176 W/m 29,3 km/h (5 Bft)
05.06.2014 17:36 16,3 C 13,9 C 70 % 1013,0 hPa 0,0 l/m 0 min 0 min 0,0 UV-I 200 W/m 23,0 km/h (4 Bft)
05.06.2014 17:38 16,3 C 13,9 C 70 % 1013,0 hPa 0,0 l/m 0 min 0 min 0,0 UV-I 155 W/m 35,6 km/h (5 Bft)
05.06.2014 17:40 16,3 C 13,9 C 70 % 1013,0 hPa 0,0 l/m 0 min 0 min 0,9 UV-I 216 W/m 33,5 km/h (5 Bft)
05.06.2014 17:42 16,4 C 13,9 C 71 % 1013,1 hPa 0,0 l/m 2 min 0 min 0,6 UV-I 670 W/m 29,3 km/h (5 Bft)
05.06.2014 17:44 16,5 C 14,4 C 70 % 1013,2 hPa 0,0 l/m 0 min 0 min 0,0 UV-I 181 W/m 25,1 km/h (4 Bft)
05.06.2014 17:46 16,4 C 13,9 C 69 % 1013,0 hPa 0,0 l/m 0 min 0 min 0,0 UV-I 264 W/m 31,4 km/h (5 Bft)
05.06.2014 17:48 16,5 C 14,4 C 70 % 1013,1 hPa 0,0 l/m 0 min 0 min 0,9 UV-I 264 W/m 16,7 km/h (3 Bft)
05.06.2014 17:50 16,6 C 14,4 C 69 % 1013,0 hPa 0,0 l/m 0 min 0 min 0,0 UV-I 216 W/m 27,2 km/h (4 Bft)
05.06.2014 17:52 16,7 C 14,4 C 70 % 1013,0 hPa 0,0 l/m 0 min 0 min 0,0 UV-I 160 W/m 27,2 km/h (4 Bft)
05.06.2014 17:54 16,7 C 14,4 C 71 % 1013,0 hPa 0,0 l/m 0 min 0 min 0,0 UV-I 120 W/m 23,0 km/h (4 Bft)
05.06.2014 17:56 16,6 C 14,4 C 71 % 1013,0 hPa 0,0 l/m 0 min 0 min 0,0 UV-I 93 W/m 25,1 km/h (4 Bft)
05.06.2014 17:58 16,4 C 14,4 C 71 % 1013,0 hPa 0,0 l/m 0 min 0 min 0,0 UV-I 105 W/m 29,3 km/h (5 Bft)
05.06.2014 18:00 16,3 C 14,4 C 70 % 1013,1 hPa 0,0 l/m 0 min 0 min 0,0 UV-I 137 W/m 33,5 km/h (5 Bft)
05.06.2014 18:02 16,3 C 13,9 C 71 % 1013,1 hPa 0,0 l/m 2 min 0 min 0,0 UV-I 294 W/m 20,9 km/h (4 Bft)
05.06.2014 18:06 16,5 C 15,0 C 71 % 1013,0 hPa 0,0 l/m 0 min 0 min 0,9 UV-I 243 W/m 23,0 km/h (4 Bft)
05.06.2014 18:08 16,6 C 15,0 C 70 % 1013,0 hPa 0,0 l/m 0 min 0 min 0,6 UV-I 243 W/m 20,9 km/h (4 Bft)
05.06.2014 18:10 16,7 C 15,0 C 70 % 1013,0 hPa 0,0 l/m 0 min 0 min 0,5 UV-I 163 W/m 29,3 km/h (5 Bft)
05.06.2014 18:12 16,8 C 14,4 C 69 % 1013,0 hPa 0,0 l/m 2 min 0 min 0,8 UV-I 504 W/m 27,2 km/h (4 Bft)
05.06.2014 18:14 16,9 C 15,0 C 68 % 1013,0 hPa 0,0 l/m 2 min 0 min 0,8 UV-I 515 W/m 29,3 km/h (5 Bft)
05.06.2014 18:16 17,0 C 15,0 C 68 % 1013,0 hPa 0,0 l/m 2 min 0 min 0,8 UV-I 499 W/m 25,1 km/h (4 Bft)
05.06.2014 18:18 17,1 C 15,0 C 69 % 1013,0 hPa 0,0 l/m 2 min 0 min 0,8 UV-I 489 W/m 18,8 km/h (3 Bft)
05.06.2014 18:20 17,2 C 15,0 C 68 % 1012,9 hPa 0,0 l/m 2 min 0 min 0,7 UV-I 471 W/m 23,0 km/h (4 Bft)
05.06.2014 18:22 17,2 C 15,0 C 68 % 1013,0 hPa 0,0 l/m 2 min 0 min 0,0 UV-I 396 W/m 33,5 km/h (5 Bft)
05.06.2014 18:24 17,2 C 15,0 C 67 % 1012,9 hPa 0,0 l/m 0 min 0 min 0,6 UV-I 104 W/m 29,3 km/h (5 Bft)
05.06.2014 18:26 17,1 C 15,0 C 67 % 1013,0 hPa 0,0 l/m 2 min 0 min 0,6 UV-I 445 W/m 37,7 km/h (5 Bft)
05.06.2014 18:28 17,1 C 15,0 C 66 % 1013,0 hPa 0,0 l/m 2 min 0 min 0,6 UV-I 459 W/m 37,7 km/h (5 Bft)
05.06.2014 18:30 17,0 C 15,0 C 66 % 1013,1 hPa 0,0 l/m 2 min 0 min 0,6 UV-I 439 W/m 35,6 km/h (5 Bft)
05.06.2014 18:32 17,1 C 15,0 C 67 % 1013,1 hPa 0,0 l/m 2 min 0 min 0,5 UV-I 425 W/m 31,4 km/h (5 Bft)
05.06.2014 18:34 17,1 C 14,4 C 67 % 1013,1 hPa 0,0 l/m 0 min 0 min 0,0 UV-I 97 W/m 35,6 km/h (5 Bft)
05.06.2014 18:36 17,0 C 14,4 C 67 % 1013,2 hPa 0,0 l/m 0 min 0 min 0,0 UV-I 98 W/m 29,3 km/h (5 Bft)
05.06.2014 18:38 16,9 C 15,0 C 67 % 1013,2 hPa 0,0 l/m 0 min 0 min 0,0 UV-I 98 W/m 18,8 km/h (3 Bft)
05.06.2014 18:40 16,9 C 15,0 C 66 % 1013,2 hPa 0,0 l/m 0 min 0 min 0,0 UV-I 98 W/m 33,5 km/h (5 Bft)
05.06.2014 18:42 16,9 C 15,0 C 67 % 1013,2 hPa 0,0 l/m 2 min 0 min 0,0 UV-I 422 W/m 29,3 km/h (5 Bft)
05.06.2014 18:44 16,9 C 14,4 C 67 % 1013,3 hPa 0,0 l/m 2 min 0 min 0,0 UV-I 403 W/m 27,2 km/h (4 Bft)
05.06.2014 18:46 16,8 C 14,4 C 66 % 1013,2 hPa 0,0 l/m 2 min 0 min 0,0 UV-I 403 W/m 29,3 km/h (5 Bft)
05.06.2014 18:48 16,8 C 14,4 C 67 % 1013,2 hPa 0,0 l/m 2 min 0 min 0,0 UV-I 390 W/m 20,9 km/h (4 Bft)
05.06.2014 18:50 16,8 C 14,4 C 66 % 1013,3 hPa 0,0 l/m 2 min 0 min 0,0 UV-I 376 W/m 33,5 km/h (5 Bft)
05.06.2014 18:52 16,8 C 14,4 C 67 % 1013,1 hPa 0,0 l/m 2 min 0 min 0,0 UV-I 371 W/m 27,2 km/h (4 Bft)
05.06.2014 18:54 16,8 C 14,4 C 65 % 1013,3 hPa 0,0 l/m 2 min 0 min 0,0 UV-I 364 W/m 31,4 km/h (5 Bft)
05.06.2014 18:56 16,8 C 14,4 C 65 % 1013,4 hPa 0,0 l/m 0 min 0 min 0,0 UV-I 195 W/m 43,9 km/h (6 Bft)
05.06.2014 18:58 16,8 C 14,4 C 65 % 1013,4 hPa 0,0 l/m 0 min 0 min 0,0 UV-I 97 W/m 29,3 km/h (5 Bft)
05.06.2014 19:00 16,7 C 14,4 C 66 % 1013,4 hPa 0,0 l/m 0 min 0 min 0,0 UV-I 97 W/m 33,5 km/h (5 Bft)
05.06.2014 19:02 16,6 C 14,4 C 65 % 1013,5 hPa 0,0 l/m 0 min 0 min 0,0 UV-I 97 W/m 37,7 km/h (5 Bft)
05.06.2014 19:06 16,4 C 14,4 C 67 % 1013,5 hPa 0,0 l/m 0 min 0 min 0,0 UV-I 121 W/m 33,5 km/h (5 Bft)
05.06.2014 19:08 16,4 C 14,4 C 67 % 1013,4 hPa 0,0 l/m 2 min 0 min 0,0 UV-I 399 W/m 27,2 km/h (4 Bft)
05.06.2014 19:10 16,5 C 15,0 C 68 % 1013,4 hPa 0,0 l/m 2 min 0 min 0,0 UV-I 411 W/m 25,1 km/h (4 Bft)
05.06.2014 19:12 16,6 C 14,4 C 68 % 1013,5 hPa 0,0 l/m 2 min 2 min 0,0 UV-I 417 W/m 35,6 km/h (5 Bft)
05.06.2014 19:14 16,6 C 14,4 C 69 % 1013,5 hPa 0,0 l/m 2 min 2 min 0,0 UV-I 385 W/m 31,4 km/h (5 Bft)
05.06.2014 19:16 16,5 C 14,4 C 68 % 1013,5 hPa 0,0 l/m 2 min 2 min 0,0 UV-I 357 W/m 29,3 km/h (5 Bft)
05.06.2014 19:18 16,4 C 14,4 C 67 % 1013,5 hPa 0,0 l/m 2 min 0 min 0,0 UV-I 322 W/m 31,4 km/h (5 Bft)
05.06.2014 19:20 16,3 C 14,4 C 67 % 1013,5 hPa 0,0 l/m 2 min 0 min 0,0 UV-I 301 W/m 25,1 km/h (4 Bft)
05.06.2014 19:22 16,3 C 13,9 C 67 % 1013,5 hPa 0,0 l/m 2 min 0 min 0,0 UV-I 287 W/m 18,8 km/h (3 Bft)
05.06.2014 19:24 16,3 C 13,9 C 68 % 1013,5 hPa 0,0 l/m 2 min 0 min 0,0 UV-I 278 W/m 16,7 km/h (3 Bft)
05.06.2014 19:26 16,3 C 13,9 C 67 % 1013,5 hPa 0,0 l/m 2 min 0 min 0,0 UV-I 272 W/m 18,8 km/h (3 Bft)
05.06.2014 19:28 16,2 C 13,9 C 68 % 1013,5 hPa 0,0 l/m 2 min 0 min 0,0 UV-I 274 W/m 8,4 km/h (2 Bft)
05.06.2014 19:30 16,3 C 13,9 C 68 % 1013,5 hPa 0,0 l/m 2 min 0 min 0,0 UV-I 267 W/m 10,5 km/h (2 Bft)
05.06.2014 19:32 16,3 C 13,9 C 69 % 1013,5 hPa 0,0 l/m 2 min 0 min 0,0 UV-I 258 W/m 16,7 km/h (3 Bft)
05.06.2014 19:34 16,3 C 14,4 C 69 % 1013,6 hPa 0,0 l/m 2 min 0 min 0,0 UV-I 250 W/m 10,5 km/h (2 Bft)
05.06.2014 19:36 16,3 C 14,4 C 70 % 1013,6 hPa 0,0 l/m 2 min 0 min 0,0 UV-I 239 W/m 14,6 km/h (3 Bft)
05.06.2014 19:38 16,3 C 13,9 C 69 % 1013,6 hPa 0,0 l/m 2 min 0 min 0,0 UV-I 236 W/m 20,9 km/h (4 Bft)
05.06.2014 19:40 16,3 C 14,4 C 69 % 1013,6 hPa 0,0 l/m 2 min 0 min 0,0 UV-I 232 W/m 23,0 km/h (4 Bft)
05.06.2014 19:42 16,3 C 13,9 C 70 % 1013,7 hPa 0,0 l/m 2 min 0 min 0,0 UV-I 181 W/m 16,7 km/h (3 Bft)
05.06.2014 19:44 16,3 C 14,4 C 68 % 1013,7 hPa 0,0 l/m 2 min 0 min 0,0 UV-I 221 W/m 29,3 km/h (5 Bft)
05.06.2014 19:46 16,3 C 14,4 C 67 % 1013,7 hPa 0,0 l/m 2 min 0 min 0,0 UV-I 156 W/m 27,2 km/h (4 Bft)
05.06.2014 19:48 16,3 C 13,9 C 67 % 1013,7 hPa 0,0 l/m 0 min 0 min 0,0 UV-I 49 W/m 23,0 km/h (4 Bft)
05.06.2014 19:50 16,2 C 13,9 C 67 % 1013,8 hPa 0,0 l/m 0 min 0 min 0,0 UV-I 51 W/m 29,3 km/h (5 Bft)
05.06.2014 19:52 16,2 C 13,9 C 66 % 1013,9 hPa 0,0 l/m 0 min 0 min 0,0 UV-I 56 W/m 20,9 km/h (4 Bft)
05.06.2014 19:54 16,1 C 13,9 C 67 % 1013,9 hPa 0,0 l/m 2 min 0 min 0,0 UV-I 206 W/m 18,8 km/h (3 Bft)
05.06.2014 19:56 16,1 C 13,9 C 66 % 1013,9 hPa 0,0 l/m 2 min 0 min 0,0 UV-I 216 W/m 20,9 km/h (4 Bft)
05.06.2014 19:58 16,0 C 13,9 C 66 % 1013,8 hPa 0,0 l/m 2 min 0 min 0,0 UV-I 209 W/m 16,7 km/h (3 Bft)
05.06.2014 20:00 16,0 C 13,9 C 66 % 1013,9 hPa 0,0 l/m 0 min 0 min 0,0 UV-I 90 W/m 14,6 km/h (3 Bft)
05.06.2014 20:02 16,0 C 13,9 C 65 % 1013,8 hPa 0,0 l/m 2 min 0 min 0,0 UV-I 185 W/m 12,6 km/h (3 Bft)
05.06.2014 20:06 16,0 C 13,9 C 66 % 1014,0 hPa 0,0 l/m 0 min 0 min 0,0 UV-I 67 W/m 20,9 km/h (4 Bft)
05.06.2014 20:08 15,9 C 13,9 C 65 % 1014,0 hPa 0,0 l/m 0 min 0 min 0,0 UV-I 60 W/m 18,8 km/h (3 Bft)
05.06.2014 20:10 15,9 C 13,9 C 65 % 1014,0 hPa 0,0 l/m 0 min 0 min 0,0 UV-I 56 W/m 14,6 km/h (3 Bft)
05.06.2014 20:12 15,9 C 13,9 C 65 % 1014,0 hPa 0,0 l/m 2 min 0 min 0,0 UV-I 167 W/m 12,6 km/h (3 Bft)
05.06.2014 20:14 15,8 C 13,9 C 66 % 1013,9 hPa 0,0 l/m 2 min 0 min 0,0 UV-I 163 W/m 14,6 km/h (3 Bft)
05.06.2014 20:16 15,8 C 13,9 C 66 % 1014,0 hPa 0,0 l/m 2 min 0 min 0,0 UV-I 160 W/m 18,8 km/h (3 Bft)
05.06.2014 20:18 15,7 C 13,9 C 66 % 1014,0 hPa 0,0 l/m 2 min 0 min 0,0 UV-I 149 W/m 12,6 km/h (3 Bft)
05.06.2014 20:20 15,7 C 13,9 C 66 % 1013,9 hPa 0,0 l/m 2 min 0 min 0,0 UV-I 144 W/m 10,5 km/h (2 Bft)
05.06.2014 20:22 15,7 C 13,9 C 66 % 1014,0 hPa 0,0 l/m 2 min 0 min 0,0 UV-I 141 W/m 14,6 km/h (3 Bft)
05.06.2014 20:24 15,7 C 13,9 C 66 % 1014,0 hPa 0,0 l/m 2 min 0 min 0,0 UV-I 134 W/m 12,6 km/h (3 Bft)
05.06.2014 20:26 15,7 C 13,3 C 67 % 1014,0 hPa 0,0 l/m 2 min 0 min 0,0 UV-I 128 W/m 14,6 km/h (3 Bft)
05.06.2014 20:28 15,7 C 13,3 C 66 % 1014,0 hPa 0,0 l/m 2 min 0 min 0,0 UV-I 121 W/m 14,6 km/h (3 Bft)
05.06.2014 20:30 15,7 C 13,3 C 67 % 1014,1 hPa 0,0 l/m 2 min 0 min 0,0 UV-I 111 W/m 12,6 km/h (3 Bft)
05.06.2014 20:32 15,6 C 13,3 C 67 % 1014,0 hPa 0,0 l/m 2 min 0 min 0,0 UV-I 105 W/m 14,6 km/h (3 Bft)
05.06.2014 20:34 15,6 C 13,3 C 67 % 1014,0 hPa 0,0 l/m 2 min 0 min 0,0 UV-I 98 W/m 10,5 km/h (2 Bft)
05.06.2014 20:36 15,6 C 13,3 C 68 % 1014,0 hPa 0,0 l/m 0 min 0 min 0,0 UV-I 33 W/m 10,5 km/h (2 Bft)
05.06.2014 20:38 15,5 C 13,3 C 68 % 1014,0 hPa 0,0 l/m 0 min 0 min 0,0 UV-I 32 W/m 8,4 km/h (2 Bft)
05.06.2014 20:40 15,4 C 12,8 C 68 % 1014,0 hPa 0,0 l/m 0 min 0 min 0,0 UV-I 30 W/m 8,4 km/h (2 Bft)
05.06.2014 20:42 15,4 C 12,8 C 68 % 1014,1 hPa 0,0 l/m 2 min 0 min 0,0 UV-I 70 W/m 16,7 km/h (3 Bft)
05.06.2014 20:44 15,4 C 12,8 C 68 % 1014,0 hPa 0,0 l/m 0 min 0 min 0,0 UV-I 56 W/m 8,4 km/h (2 Bft)
05.06.2014 20:46 15,3 C 12,8 C 68 % 1014,0 hPa 0,0 l/m 0 min 0 min 0,0 UV-I 32 W/m 12,6 km/h (3 Bft)
05.06.2014 20:48 15,3 C 12,8 C 68 % 1014,0 hPa 0,0 l/m 0 min 0 min 0,0 UV-I 33 W/m 6,3 km/h (2 Bft)
05.06.2014 20:50 15,2 C 12,8 C 69 % 1014,0 hPa 0,0 l/m 0 min 0 min 0,0 UV-I 35 W/m 4,2 km/h (1 Bft)
05.06.2014 20:52 15,2 C 12,8 C 69 % 1014,1 hPa 0,0 l/m 0 min 0 min 0,0 UV-I 39 W/m 6,3 km/h (2 Bft)
05.06.2014 20:54 15,1 C 12,8 C 70 % 1014,0 hPa 0,0 l/m 0 min 0 min 0,0 UV-I 46 W/m 2,1 km/h (1 Bft)
05.06.2014 20:56 15,1 C 12,8 C 69 % 1014,0 hPa 0,0 l/m 2 min 0 min 0,0 UV-I 58 W/m 8,4 km/h (2 Bft)
05.06.2014 20:58 15,1 C 12,8 C 69 % 1014,1 hPa 0,0 l/m 0 min 0 min 0,0 UV-I 46 W/m 6,3 km/h (2 Bft)
05.06.2014 21:00 15,0 C 12,8 C 70 % 1014,0 hPa 0,0 l/m 0 min 0 min 0,0 UV-I 44 W/m 8,4 km/h (2 Bft)
05.06.2014 21:02 15,0 C 12,8 C 70 % 1014,1 hPa 0,0 l/m 0 min 0 min 0,0 UV-I 40 W/m 4,2 km/h (1 Bft)
05.06.2014 21:06 14,9 C 12,2 C 71 % 1014,1 hPa 0,0 l/m 0 min 0 min 0,0 UV-I 35 W/m 4,2 km/h (1 Bft)
05.06.2014 21:08 14,9 C 12,2 C 71 % 1014,2 hPa 0,0 l/m 0 min 0 min 0,0 UV-I 33 W/m 4,2 km/h (1 Bft)
05.06.2014 21:10 14,9 C 12,2 C 71 % 1014,2 hPa 0,0 l/m 0 min 0 min 0,0 UV-I 30 W/m 2,1 km/h (1 Bft)
05.06.2014 21:12 14,8 C 12,2 C 71 % 1014,2 hPa 0,0 l/m 0 min 0 min 0,0 UV-I 26 W/m 8,4 km/h (2 Bft)
05.06.2014 21:14 14,8 C 12,2 C 71 % 1014,2 hPa 0,0 l/m 0 min 0 min 0,0 UV-I 23 W/m 12,6 km/h (3 Bft)
05.06.2014 21:16 14,7 C 12,2 C 71 % 1014,2 hPa 0,0 l/m 0 min 0 min 0,0 UV-I 21 W/m 10,5 km/h (2 Bft)
05.06.2014 21:18 14,7 C 12,2 C 71 % 1014,2 hPa 0,0 l/m 0 min 0 min 0,0 UV-I 18 W/m 12,6 km/h (3 Bft)
05.06.2014 21:20 14,7 C 12,2 C 71 % 1014,3 hPa 0,0 l/m 0 min 0 min 0,0 UV-I 16 W/m 8,4 km/h (2 Bft)
05.06.2014 21:22 14,7 C 12,2 C 71 % 1014,3 hPa 0,0 l/m 0 min 0 min 0,0 UV-I 16 W/m 8,4 km/h (2 Bft)
05.06.2014 21:24 14,7 C 12,2 C 72 % 1014,4 hPa 0,0 l/m 0 min 0 min 0,0 UV-I 14 W/m 4,2 km/h (1 Bft)
05.06.2014 21:26 14,6 C 12,2 C 71 % 1014,3 hPa 0,0 l/m 0 min 0 min 0,0 UV-I 14 W/m 10,5 km/h (2 Bft)
05.06.2014 21:28 14,6 C 12,2 C 72 % 1014,4 hPa 0,0 l/m 0 min 0 min 0,0 UV-I 12 W/m 4,2 km/h (1 Bft)
05.06.2014 21:30 14,6 C 12,2 C 72 % 1014,4 hPa 0,0 l/m 0 min 0 min 0,0 UV-I 11 W/m 10,5 km/h (2 Bft)
05.06.2014 21:32 14,6 C 12,2 C 72 % 1014,4 hPa 0,0 l/m 0 min 0 min 0,0 UV-I 11 W/m 8,4 km/h (2 Bft)
05.06.2014 21:34 14,6 C 12,2 C 72 % 1014,4 hPa 0,0 l/m 0 min 0 min 0,0 UV-I 9 W/m 10,5 km/h (2 Bft)
05.06.2014 21:36 14,6 C 12,2 C 72 % 1014,4 hPa 0,0 l/m 0 min 0 min 0,0 UV-I 9 W/m 8,4 km/h (2 Bft)
05.06.2014 21:38 14,5 C 11,7 C 72 % 1014,4 hPa 0,0 l/m 0 min 0 min 0,0 UV-I 9 W/m 6,3 km/h (2 Bft)
05.06.2014 21:40 14,5 C 11,7 C 72 % 1014,5 hPa 0,0 l/m 0 min 0 min 0,0 UV-I 7 W/m 10,5 km/h (2 Bft)
05.06.2014 21:42 14,6 C 12,2 C 72 % 1014,5 hPa 0,0 l/m 0 min 0 min 0,0 UV-I 7 W/m 12,6 km/h (3 Bft)
05.06.2014 21:44 14,5 C 12,2 C 72 % 1014,5 hPa 0,0 l/m 0 min 0 min 0,0 UV-I 7 W/m 10,5 km/h (2 Bft)
05.06.2014 21:46 14,4 C 12,2 C 73 % 1014,5 hPa 0,0 l/m 0 min 0 min 0,0 UV-I 5 W/m 10,5 km/h (2 Bft)
05.06.2014 21:48 14,4 C 12,2 C 72 % 1014,6 hPa 0,0 l/m 0 min 0 min 0,0 UV-I 5 W/m 6,3 km/h (2 Bft)
05.06.2014 21:50 14,4 C 11,7 C 72 % 1014,6 hPa 0,0 l/m 0 min 0 min 0,0 UV-I 5 W/m 6,3 km/h (2 Bft)
05.06.2014 21:52 14,3 C 11,7 C 73 % 1014,6 hPa 0,0 l/m 0 min 0 min 0,0 UV-I 0 W/m 8,4 km/h (2 Bft)
05.06.2014 21:54 14,3 C 11,7 C 73 % 1014,6 hPa 0,0 l/m 0 min 0 min 0,0 UV-I 0 W/m 4,2 km/h (1 Bft)
05.06.2014 21:56 14,2 C 11,7 C 73 % 1014,6 hPa 0,0 l/m 0 min 0 min 0,0 UV-I 0 W/m 8,4 km/h (2 Bft)
05.06.2014 21:58 14,2 C 11,7 C 73 % 1014,7 hPa 0,0 l/m 0 min 0 min 0,0 UV-I 0 W/m 6,3 km/h (2 Bft)
05.06.2014 22:00 14,2 C 11,7 C 74 % 1014,6 hPa 0,0 l/m 0 min 0 min 0,0 UV-I 0 W/m 8,4 km/h (2 Bft)
05.06.2014 22:02 14,2 C 11,7 C 74 % 1014,7 hPa 0,0 l/m 0 min 0 min 0,0 UV-I 0 W/m 2,1 km/h (1 Bft)
05.06.2014 22:06 14,2 C 11,7 C 74 % 1014,7 hPa 0,0 l/m 0 min 0 min 0,0 UV-I 0 W/m 2,1 km/h (1 Bft)
05.06.2014 22:08 14,2 C 11,1 C 74 % 1014,7 hPa 0,0 l/m 0 min 0 min 0,0 UV-I 0 W/m 4,2 km/h (1 Bft)
05.06.2014 22:10 14,0 C 11,1 C 75 % 1014,8 hPa 0,0 l/m 0 min 0 min 0,0 UV-I 0 W/m 10,5 km/h (2 Bft)
05.06.2014 22:12 13,9 C 11,1 C 75 % 1014,8 hPa 0,0 l/m 0 min 0 min 0,0 UV-I 0 W/m 2,1 km/h (1 Bft)
05.06.2014 22:14 13,8 C 11,1 C 75 % 1014,8 hPa 0,0 l/m 0 min 0 min 0,0 UV-I 0 W/m 2,1 km/h (1 Bft)
05.06.2014 22:16 13,8 C 11,1 C 76 % 1014,8 hPa 0,0 l/m 0 min 0 min 0,0 UV-I 0 W/m 2,1 km/h (1 Bft)
05.06.2014 22:18 13,7 C 10,6 C 76 % 1014,8 hPa 0,0 l/m 0 min 0 min 0,0 UV-I 0 W/m 10,5 km/h (2 Bft)
05.06.2014 22:20 13,7 C 10,6 C 76 % 1014,8 hPa 0,0 l/m 0 min 0 min 0,0 UV-I 0 W/m 8,4 km/h (2 Bft)
05.06.2014 22:22 13,7 C 10,6 C 76 % 1014,9 hPa 0,0 l/m 0 min 0 min 0,0 UV-I 0 W/m 10,5 km/h (2 Bft)
05.06.2014 22:24 13,7 C 11,1 C 76 % 1014,9 hPa 0,0 l/m 0 min 0 min 0,0 UV-I 0 W/m 8,4 km/h (2 Bft)
05.06.2014 22:26 13,7 C 11,1 C 76 % 1014,9 hPa 0,0 l/m 0 min 0 min 0,0 UV-I 0 W/m 6,3 km/h (2 Bft)
05.06.2014 22:28 13,7 C 11,1 C 76 % 1014,9 hPa 0,0 l/m 0 min 0 min 0,0 UV-I 0 W/m 8,4 km/h (2 Bft)
05.06.2014 22:30 13,8 C 11,1 C 76 % 1014,9 hPa 0,0 l/m 0 min 0 min 0,0 UV-I 0 W/m 8,4 km/h (2 Bft)
05.06.2014 22:32 13,8 C 11,1 C 76 % 1014,9 hPa 0,0 l/m 0 min 0 min 0,0 UV-I 0 W/m 6,3 km/h (2 Bft)
05.06.2014 22:34 13,9 C 11,1 C 75 % 1015,0 hPa 0,0 l/m 0 min 0 min 0,0 UV-I 0 W/m 0,0 km/h (0 Bft)
05.06.2014 22:36 13,8 C 11,1 C 75 % 1014,9 hPa 0,0 l/m 0 min 0 min 0,0 UV-I 0 W/m 8,4 km/h (2 Bft)
05.06.2014 22:38 13,8 C 11,1 C 76 % 1015,0 hPa 0,0 l/m 0 min 0 min 0,0 UV-I 0 W/m 4,2 km/h (1 Bft)
05.06.2014 22:40 13,8 C 11,1 C 76 % 1015,1 hPa 0,0 l/m 0 min 0 min 0,0 UV-I 0 W/m 6,3 km/h (2 Bft)
05.06.2014 22:42 13,7 C 11,1 C 76 % 1015,1 hPa 0,0 l/m 0 min 0 min 0,0 UV-I 0 W/m 0,0 km/h (0 Bft)
05.06.2014 22:44 13,6 C 11,1 C 77 % 1015,1 hPa 0,0 l/m 0 min 0 min 0,0 UV-I 0 W/m 6,3 km/h (2 Bft)
05.06.2014 22:46 13,5 C 11,1 C 77 % 1015,1 hPa 0,0 l/m 0 min 0 min 0,0 UV-I 0 W/m 8,4 km/h (2 Bft)
05.06.2014 22:48 13,6 C 11,1 C 77 % 1015,1 hPa 0,0 l/m 0 min 0 min 0,0 UV-I 0 W/m 8,4 km/h (2 Bft)
05.06.2014 22:50 13,6 C 11,1 C 77 % 1015,2 hPa 0,0 l/m 0 min 0 min 0,0 UV-I 0 W/m 6,3 km/h (2 Bft)
05.06.2014 22:52 13,5 C 10,6 C 77 % 1015,2 hPa 0,0 l/m 0 min 0 min 0,0 UV-I 0 W/m 2,1 km/h (1 Bft)
05.06.2014 22:54 13,4 C 10,6 C 77 % 1015,2 hPa 0,0 l/m 0 min 0 min 0,0 UV-I 0 W/m 8,4 km/h (2 Bft)
05.06.2014 22:56 13,3 C 10,6 C 78 % 1015,2 hPa 0,0 l/m 0 min 0 min 0,0 UV-I 0 W/m 0,0 km/h (0 Bft)
05.06.2014 22:58 13,3 C 10,6 C 78 % 1015,2 hPa 0,0 l/m 0 min 0 min 0,0 UV-I 0 W/m 0,0 km/h (0 Bft)
05.06.2014 23:00 13,3 C 10,6 C 78 % 1015,2 hPa 0,0 l/m 0 min 0 min 0,0 UV-I 0 W/m 8,4 km/h (2 Bft)
05.06.2014 23:02 13,3 C 10,6 C 78 % 1015,2 hPa 0,0 l/m 0 min 0 min 0,0 UV-I 0 W/m 0,0 km/h (0 Bft)
05.06.2014 23:06 13,3 C 10,6 C 78 % 1015,2 hPa 0,0 l/m 0 min 0 min 0,0 UV-I 0 W/m 0,0 km/h (0 Bft)
05.06.2014 23:08 13,3 C 10,6 C 78 % 1015,2 hPa 0,0 l/m 0 min 0 min 0,0 UV-I 0 W/m 0,0 km/h (0 Bft)
05.06.2014 23:10 13,2 C 10,6 C 78 % 1015,2 hPa 0,0 l/m 0 min 0 min 0,0 UV-I 0 W/m 0,0 km/h (0 Bft)
05.06.2014 23:12 13,2 C 10,6 C 78 % 1015,3 hPa 0,0 l/m 0 min 0 min 0,0 UV-I 0 W/m 6,3 km/h (2 Bft)
05.06.2014 23:14 13,2 C 10,6 C 78 % 1015,3 hPa 0,0 l/m 0 min 0 min 0,0 UV-I 0 W/m 8,4 km/h (2 Bft)
05.06.2014 23:16 13,1 C 10,6 C 79 % 1015,3 hPa 0,0 l/m 0 min 0 min 0,0 UV-I 0 W/m 2,1 km/h (1 Bft)
05.06.2014 23:18 13,0 C 10,0 C 79 % 1015,3 hPa 0,0 l/m 0 min 0 min 0,0 UV-I 0 W/m 0,0 km/h (0 Bft)
05.06.2014 23:20 12,9 C 10,0 C 80 % 1015,3 hPa 0,0 l/m 0 min 0 min 0,0 UV-I 0 W/m 0,0 km/h (0 Bft)
05.06.2014 23:22 12,8 C 10,0 C 81 % 1015,3 hPa 0,0 l/m 0 min 0 min 0,0 UV-I 0 W/m 0,0 km/h (0 Bft)
05.06.2014 23:24 12,7 C 10,0 C 81 % 1015,4 hPa 0,0 l/m 0 min 0 min 0,0 UV-I 0 W/m 0,0 km/h (0 Bft)
05.06.2014 23:26 12,6 C 10,0 C 81 % 1015,4 hPa 0,0 l/m 0 min 0 min 0,0 UV-I 0 W/m 2,1 km/h (1 Bft)
05.06.2014 23:28 12,4 C 10,0 C 82 % 1015,3 hPa 0,0 l/m 0 min 0 min 0,0 UV-I 0 W/m 10,5 km/h (2 Bft)
05.06.2014 23:30 12,4 C 10,0 C 82 % 1015,4 hPa 0,0 l/m 0 min 0 min 0,0 UV-I 0 W/m 4,2 km/h (1 Bft)
05.06.2014 23:32 12,4 C 10,0 C 82 % 1015,4 hPa 0,0 l/m 0 min 0 min 0,0 UV-I 0 W/m 4,2 km/h (1 Bft)
05.06.2014 23:34 12,4 C 10,0 C 83 % 1015,4 hPa 0,0 l/m 0 min 0 min 0,0 UV-I 0 W/m 6,3 km/h (2 Bft)
05.06.2014 23:36 12,4 C 10,0 C 83 % 1015,5 hPa 0,0 l/m 0 min 0 min 0,0 UV-I 0 W/m 0,0 km/h (0 Bft)
05.06.2014 23:38 12,4 C 10,0 C 83 % 1015,4 hPa 0,0 l/m 0 min 0 min 0,0 UV-I 0 W/m 0,0 km/h (0 Bft)
05.06.2014 23:40 12,3 C 10,0 C 83 % 1015,4 hPa 0,0 l/m 0 min 0 min 0,0 UV-I 0 W/m 6,3 km/h (2 Bft)
05.06.2014 23:42 12,2 C 9,4 C 83 % 1015,5 hPa 0,0 l/m 0 min 0 min 0,0 UV-I 0 W/m 4,2 km/h (1 Bft)
05.06.2014 23:44 12,1 C 9,4 C 84 % 1015,5 hPa 0,0 l/m 0 min 0 min 0,0 UV-I 0 W/m 6,3 km/h (2 Bft)
05.06.2014 23:46 11,9 C 9,4 C 84 % 1015,5 hPa 0,0 l/m 0 min 0 min 0,0 UV-I 0 W/m 8,4 km/h (2 Bft)
05.06.2014 23:48 11,9 C 9,4 C 85 % 1015,5 hPa 0,0 l/m 0 min 0 min 0,0 UV-I 0 W/m 8,4 km/h (2 Bft)
05.06.2014 23:50 11,9 C 9,4 C 85 % 1015,5 hPa 0,0 l/m 0 min 0 min 0,0 UV-I 0 W/m 6,3 km/h (2 Bft)
05.06.2014 23:52 11,8 C 9,4 C 85 % 1015,5 hPa 0,0 l/m 0 min 0 min 0,0 UV-I 0 W/m 2,1 km/h (1 Bft)
05.06.2014 23:54 11,8 C 9,4 C 85 % 1015,5 hPa 0,0 l/m 0 min 0 min 0,0 UV-I 0 W/m 4,2 km/h (1 Bft)
05.06.2014 23:56 11,8 C 9,4 C 85 % 1015,5 hPa 0,0 l/m 0 min 0 min 0,0 UV-I 0 W/m 4,2 km/h (1 Bft)
05.06.2014 23:58 11,7 C 9,4 C 86 % 1015,5 hPa 0,0 l/m 0 min 0 min 0,0 UV-I 0 W/m 8,4 km/h (2 Bft)
_ Min-Zeit 05:40 05:30 18:54 00:00 - - - - - 22:34
Minimum _ 8,0 C 6,7 C 65 % 1006,9 hPa - - - - - 0,0 km/h (0 Bft)
_ Max-Zeit 15:48 15:32 05:26 23:36 16:10 06:56 00:00 14:12 15:12 14:14
Maximum _ 17,3 C 17,2 C 99 % 1015,5 hPa 1,0 l/m 2 min 2 min 5,4 UV-I 1085 W/m 54,4 km/h
W-SW (7 Bft)
Durchschnitt _ 12,7 C 11,3 C 83 % 1011,4 hPa #2,4 l/m #3:54 h #2:50 h 1,6 UV-I 204 W/m 21,2 km/h (4 Bft)
© 2014 W. Hausmann